Time,TemperatureF,DewpointF,PressureIn,WindDirection,WindDirectionDegrees,WindSpeedMPH,WindSpeedGustMPH,Humidity,HourlyPrecipIn,Conditions,Clouds,dailyrainin,SoftwareType,DateUTC
2013-01-26 00:00:00,19.0,8.1,30.06,North,0,0.0,1.6,62,0.00,,,0.00,WUHU21623XXSP,2013-01-26 05:00:00,
2013-01-26 00:01:00,19.0,8.1,30.06,North,0,0.0,1.6,62,0.00,,,0.00,WUHU21623XXSP,2013-01-26 05:01:00,
2013-01-26 00:03:00,19.0,8.1,30.06,North,0,0.0,0.0,62,0.00,,,0.00,WUHU21623XXSP,2013-01-26 05:03:00,
2013-01-26 00:05:00,19.0,8.4,30.06,North,0,0.0,0.0,63,0.00,,,0.00,WUHU21623XXSP,2013-01-26 05:05:00,
2013-01-26 00:06:00,19.0,8.4,30.06,North,0,0.0,0.0,63,0.00,,,0.00,WUHU21623XXSP,2013-01-26 05:06:00,
2013-01-26 00:08:00,19.0,8.4,30.06,WNW,292,0.0,0.0,63,0.00,,,0.00,WUHU21623XXSP,2013-01-26 05:08:00,
2013-01-26 00:10:00,18.9,8.2,30.06,West,270,0.0,0.0,63,0.00,,,0.00,WUHU21623XXSP,2013-01-26 05:10:00,
2013-01-26 00:11:00,18.9,8.2,30.06,West,270,0.0,0.0,63,0.00,,,0.00,WUHU21623XXSP,2013-01-26 05:11:00,
2013-01-26 00:14:00,19.0,8.4,30.06,West,270,0.0,0.0,63,0.00,,,0.00,WUHU21623XXSP,2013-01-26 05:14:00,
2013-01-26 00:15:00,18.9,8.4,30.05,West,270,0.0,0.0,63,0.00,,,0.00,WUHU21623XXSP,2013-01-26 05:15:00,
2013-01-26 00:16:00,18.9,8.4,30.05,West,270,0.0,0.0,63,0.00,,,0.00,WUHU21623XXSP,2013-01-26 05:16:00,
2013-01-26 00:19:00,18.9,8.2,30.05,WNW,292,0.0,0.0,63,0.00,,,0.00,WUHU21623XXSP,2013-01-26 05:19:00,
2013-01-26 00:20:00,18.9,8.2,30.05,WNW,292,0.0,0.0,63,0.00,,,0.00,WUHU21623XXSP,2013-01-26 05:20:00,
2013-01-26 00:21:00,18.9,8.6,30.05,WNW,292,0.0,0.0,64,0.00,,,0.00,WUHU21623XXSP,2013-01-26 05:21:00,
2013-01-26 00:24:00,18.9,8.6,30.05,North,0,0.0,0.0,64,0.00,,,0.00,WUHU21623XXSP,2013-01-26 05:24:00,
2013-01-26 00:25:00,18.9,8.6,30.05,NW,315,0.0,0.0,64,0.00,,,0.00,WUHU21623XXSP,2013-01-26 05:25:00,
2013-01-26 00:26:00,18.9,8.6,30.05,NW,315,0.0,0.0,64,0.00,,,0.00,WUHU21623XXSP,2013-01-26 05:26:00,
2013-01-26 00:29:00,18.7,8.4,30.05,NW,315,0.0,0.0,64,0.00,,,0.00,WUHU21623XXSP,2013-01-26 05:29:00,
2013-01-26 00:31:00,18.7,8.4,30.05,WNW,292,0.0,0.0,64,0.00,,,0.00,WUHU21623XXSP,2013-01-26 05:31:00,
2013-01-26 00:35:00,18.7,8.4,30.05,WNW,292,0.0,0.0,64,0.00,,,0.00,WUHU21623XXSP,2013-01-26 05:35:00,
2013-01-26 00:36:00,18.7,8.8,30.05,North,0,0.0,0.0,65,0.00,,,0.00,WUHU21623XXSP,2013-01-26 05:36:00,
2013-01-26 00:37:00,18.7,8.8,30.05,North,0,0.0,0.0,65,0.00,,,0.00,WUHU21623XXSP,2013-01-26 05:37:00,
2013-01-26 00:40:00,18.7,8.8,30.05,North,0,0.0,0.0,65,0.00,,,0.00,WUHU21623XXSP,2013-01-26 05:40:00,
2013-01-26 00:42:00,18.7,8.8,30.05,North,0,0.0,0.0,65,0.00,,,0.00,WUHU21623XXSP,2013-01-26 05:42:00,
2013-01-26 00:43:00,18.7,8.8,30.05,North,0,0.0,0.0,65,0.00,,,0.00,WUHU21623XXSP,2013-01-26 05:43:00,
2013-01-26 00:45:00,18.7,9.1,30.05,NW,315,0.0,0.0,66,0.00,,,0.00,WUHU21623XXSP,2013-01-26 05:45:00,
2013-01-26 00:47:00,18.5,9.1,30.05,NW,315,0.0,0.0,66,0.00,,,0.00,WUHU21623XXSP,2013-01-26 05:47:00,
2013-01-26 00:48:00,18.5,9.1,30.05,NW,315,0.0,0.0,66,0.00,,,0.00,WUHU21623XXSP,2013-01-26 05:48:00,
2013-01-26 00:50:00,18.5,8.9,30.05,WNW,292,0.0,0.0,66,0.00,,,0.00,WUHU21623XXSP,2013-01-26 05:50:00,
2013-01-26 00:52:00,18.5,8.9,30.05,WNW,292,0.0,0.0,66,0.00,,,0.00,WUHU21623XXSP,2013-01-26 05:52:00,
2013-01-26 00:53:00,18.5,8.9,30.05,WNW,292,0.0,0.0,66,0.00,,,0.00,WUHU21623XXSP,2013-01-26 05:53:00,
2013-01-26 00:55:00,18.5,8.9,30.05,North,0,0.0,0.0,66,0.00,,,0.00,WUHU21623XXSP,2013-01-26 05:55:00,
2013-01-26 00:58:00,18.5,8.9,30.04,North,0,0.0,0.0,66,0.00,,,0.00,WUHU21623XXSP,2013-01-26 05:58:00,
2013-01-26 01:00:00,18.5,8.9,30.04,North,0,0.0,0.0,66,0.00,,,0.00,WUHU21623XXSP,2013-01-26 06:00:00,
2013-01-26 01:03:00,18.5,8.9,30.05,North,0,0.0,0.0,66,0.00,,,0.00,WUHU21623XXSP,2013-01-26 06:03:00,
2013-01-26 01:05:00,18.5,8.9,30.05,West,270,0.0,0.0,66,0.00,,,0.00,WUHU21623XXSP,2013-01-26 06:05:00,
2013-01-26 01:08:00,18.5,9.3,30.04,WNW,292,0.0,0.0,67,0.00,,,0.00,WUHU21623XXSP,2013-01-26 06:08:00,
2013-01-26 01:10:00,18.3,9.1,30.04,WNW,292,0.0,0.0,67,0.00,,,0.00,WUHU21623XXSP,2013-01-26 06:10:00,
2013-01-26 01:13:00,18.3,9.1,30.04,WNW,292,0.0,0.0,66,0.00,,,0.00,WUHU21623XXSP,2013-01-26 06:13:00,
2013-01-26 01:14:00,18.3,9.1,30.04,WNW,292,0.0,0.0,66,0.00,,,0.00,WUHU21623XXSP,2013-01-26 06:14:00,
2013-01-26 01:15:00,18.3,9.1,30.04,NW,315,0.0,0.0,67,0.00,,,0.00,WUHU21623XXSP,2013-01-26 06:15:00,
2013-01-26 01:18:00,18.3,8.8,30.04,NNW,337,0.0,0.0,66,0.00,,,0.00,WUHU21623XXSP,2013-01-26 06:18:00,
2013-01-26 01:19:00,18.3,9.1,30.04,WNW,292,0.0,0.0,67,0.00,,,0.00,WUHU21623XXSP,2013-01-26 06:19:00,
2013-01-26 01:21:00,18.3,9.1,30.04,WNW,292,0.0,0.0,67,0.00,,,0.00,WUHU21623XXSP,2013-01-26 06:21:00,
2013-01-26 01:23:00,18.3,9.1,30.04,WNW,292,0.0,0.0,67,0.00,,,0.00,WUHU21623XXSP,2013-01-26 06:23:00,
2013-01-26 01:24:00,18.3,9.1,30.04,WNW,292,0.0,0.0,67,0.00,,,0.00,WUHU21623XXSP,2013-01-26 06:24:00,
2013-01-26 01:26:00,18.3,9.1,30.04,NW,315,0.0,0.0,67,0.00,,,0.00,WUHU21623XXSP,2013-01-26 06:26:00,
2013-01-26 01:28:00,18.3,9.1,30.04,WNW,292,0.0,0.0,67,0.00,,,0.00,WUHU21623XXSP,2013-01-26 06:28:00,
2013-01-26 01:29:00,18.3,9.1,30.04,WNW,292,0.0,0.0,67,0.00,,,0.00,WUHU21623XXSP,2013-01-26 06:29:00,
2013-01-26 01:31:00,18.1,9.0,30.04,NW,315,0.0,0.0,67,0.00,,,0.00,WUHU21623XXSP,2013-01-26 06:31:00,
2013-01-26 01:33:00,18.1,9.0,30.04,NW,315,0.0,0.0,67,0.00,,,0.00,WUHU21623XXSP,2013-01-26 06:33:00,
2013-01-26 01:34:00,18.1,9.0,30.04,NW,315,0.0,0.0,67,0.00,,,0.00,WUHU21623XXSP,2013-01-26 06:34:00,
2013-01-26 01:35:00,18.1,9.0,30.04,NW,315,0.0,0.0,67,0.00,,,0.00,WUHU21623XXSP,2013-01-26 06:35:00,
2013-01-26 01:37:00,18.1,9.0,30.04,NW,315,0.0,0.0,67,0.00,,,0.00,WUHU21623XXSP,2013-01-26 06:37:00,
2013-01-26 01:38:00,18.1,9.0,30.04,NW,315,0.0,0.0,67,0.00,,,0.00,WUHU21623XXSP,2013-01-26 06:38:00,
2013-01-26 01:39:00,18.1,9.0,30.04,NW,315,0.0,0.0,67,0.00,,,0.00,WUHU21623XXSP,2013-01-26 06:39:00,
2013-01-26 01:40:00,18.1,9.0,30.04,NW,315,0.0,0.0,67,0.00,,,0.00,WUHU21623XXSP,2013-01-26 06:40:00,
2013-01-26 01:42:00,18.1,9.0,30.04,NW,315,0.0,0.0,67,0.00,,,0.00,WUHU21623XXSP,2013-01-26 06:42:00,
2013-01-26 01:43:00,18.0,8.8,30.04,NW,315,0.0,0.0,67,0.00,,,0.00,WUHU21623XXSP,2013-01-26 06:43:00,
2013-01-26 01:44:00,18.0,8.8,30.04,NW,315,0.0,0.0,67,0.00,,,0.00,WUHU21623XXSP,2013-01-26 06:44:00,
2013-01-26 01:45:00,18.0,9.1,30.04,NNW,337,0.0,0.0,68,0.00,,,0.00,WUHU21623XXSP,2013-01-26 06:45:00,
2013-01-26 01:47:00,18.0,9.1,30.04,NNW,337,0.0,0.0,68,0.00,,,0.00,WUHU21623XXSP,2013-01-26 06:47:00,
2013-01-26 01:48:00,18.0,9.1,30.04,NNW,337,0.0,0.0,68,0.00,,,0.00,WUHU21623XXSP,2013-01-26 06:48:00,
2013-01-26 01:50:00,18.0,9.1,30.04,NNW,337,0.0,0.0,68,0.00,,,0.00,WUHU21623XXSP,2013-01-26 06:50:00,
2013-01-26 01:52:00,17.8,9.1,30.04,NNW,337,0.0,0.0,68,0.00,,,0.00,WUHU21623XXSP,2013-01-26 06:52:00,
2013-01-26 01:54:00,17.8,9.0,30.03,NNE,22,0.0,0.0,68,0.00,,,0.00,WUHU21623XXSP,2013-01-26 06:54:00,
2013-01-26 01:55:00,17.8,9.0,30.03,NNE,22,0.0,0.0,68,0.00,,,0.00,WUHU21623XXSP,2013-01-26 06:55:00,
2013-01-26 01:56:00,17.8,9.0,30.04,NNE,22,0.0,0.0,68,0.00,,,0.00,WUHU21623XXSP,2013-01-26 06:56:00,
2013-01-26 01:57:00,17.8,9.0,30.04,NNE,22,0.0,0.0,68,0.00,,,0.00,WUHU21623XXSP,2013-01-26 06:57:00,
2013-01-26 01:59:00,17.8,9.0,30.03,NNE,22,0.0,0.0,68,0.00,,,0.00,WUHU21623XXSP,2013-01-26 06:59:00,
2013-01-26 02:00:00,17.8,9.0,30.03,NNE,22,0.0,0.0,68,0.00,,,0.00,WUHU21623XXSP,2013-01-26 07:00:00,
2013-01-26 02:01:00,17.8,9.0,30.03,NNE,22,0.0,0.0,68,0.00,,,0.00,WUHU21623XXSP,2013-01-26 07:01:00,
2013-01-26 02:02:00,17.8,9.0,30.03,ENE,67,0.0,0.0,68,0.00,,,0.00,WUHU21623XXSP,2013-01-26 07:02:00,
2013-01-26 02:04:00,17.6,8.8,30.03,North,0,0.0,0.0,68,0.00,,,0.00,WUHU21623XXSP,2013-01-26 07:04:00,
2013-01-26 02:05:00,17.6,8.8,30.03,North,0,0.0,0.0,68,0.00,,,0.00,WUHU21623XXSP,2013-01-26 07:05:00,
2013-01-26 02:06:00,17.4,8.6,30.04,NNE,22,0.0,0.0,68,0.00,,,0.00,WUHU21623XXSP,2013-01-26 07:06:00,
2013-01-26 02:07:00,17.4,8.6,30.04,NNE,22,0.0,0.0,68,0.00,,,0.00,WUHU21623XXSP,2013-01-26 07:07:00,
2013-01-26 02:09:00,17.4,8.6,30.03,North,0,0.0,0.0,68,0.00,,,0.00,WUHU21623XXSP,2013-01-26 07:09:00,
2013-01-26 02:10:00,17.4,8.6,30.03,NNW,337,0.0,0.0,68,0.00,,,0.00,WUHU21623XXSP,2013-01-26 07:10:00,
2013-01-26 02:11:00,17.4,8.6,30.03,NNW,337,0.0,0.0,68,0.00,,,0.00,WUHU21623XXSP,2013-01-26 07:11:00,
2013-01-26 02:12:00,17.4,8.6,30.03,NNW,337,0.0,0.0,68,0.00,,,0.00,WUHU21623XXSP,2013-01-26 07:12:00,
2013-01-26 02:14:00,17.4,8.6,30.03,NNW,337,0.0,0.0,68,0.00,,,0.00,WUHU21623XXSP,2013-01-26 07:14:00,
2013-01-26 02:15:00,17.2,8.5,30.03,NNW,337,0.0,0.0,68,0.00,,,0.00,WUHU21623XXSP,2013-01-26 07:15:00,
2013-01-26 02:16:00,17.2,8.5,30.03,NNW,337,0.0,0.0,68,0.00,,,0.00,WUHU21623XXSP,2013-01-26 07:16:00,
2013-01-26 02:17:00,17.2,8.5,30.03,NW,315,0.0,0.0,68,0.00,,,0.00,WUHU21623XXSP,2013-01-26 07:17:00,
2013-01-26 02:19:00,17.2,8.5,30.03,North,0,0.0,0.0,68,0.00,,,0.00,WUHU21623XXSP,2013-01-26 07:19:00,
2013-01-26 02:20:00,17.2,8.5,30.03,North,0,0.0,0.0,68,0.00,,,0.00,WUHU21623XXSP,2013-01-26 07:20:00,
2013-01-26 02:21:00,17.2,8.5,30.03,NNW,337,0.0,0.0,68,0.00,,,0.00,WUHU21623XXSP,2013-01-26 07:21:00,
2013-01-26 02:22:00,17.2,8.5,30.03,NNW,337,0.0,0.0,68,0.00,,,0.00,WUHU21623XXSP,2013-01-26 07:22:00,
2013-01-26 02:25:00,16.9,8.1,30.03,NNW,337,0.0,0.0,68,0.00,,,0.00,WUHU21623XXSP,2013-01-26 07:25:00,
2013-01-26 02:26:00,16.9,8.1,30.03,NNW,337,0.0,0.0,68,0.00,,,0.00,WUHU21623XXSP,2013-01-26 07:26:00,
2013-01-26 02:27:00,16.9,8.1,30.03,NNW,337,0.0,0.0,68,0.00,,,0.00,WUHU21623XXSP,2013-01-26 07:27:00,
2013-01-26 02:30:00,16.9,8.1,30.03,NNW,337,0.0,0.0,68,0.00,,,0.00,WUHU21623XXSP,2013-01-26 07:30:00,
2013-01-26 02:31:00,16.9,8.1,30.03,NNW,337,0.0,0.0,68,0.00,,,0.00,WUHU21623XXSP,2013-01-26 07:31:00,
2013-01-26 02:32:00,16.9,8.1,30.02,NNW,337,0.0,0.0,68,0.00,,,0.00,WUHU21623XXSP,2013-01-26 07:32:00,
2013-01-26 02:35:00,16.7,8.1,30.02,NNW,337,0.0,0.0,68,0.00,,,0.00,WUHU21623XXSP,2013-01-26 07:35:00,
2013-01-26 02:36:00,16.7,7.9,30.02,NNW,337,0.0,0.0,68,0.00,,,0.00,WUHU21623XXSP,2013-01-26 07:36:00,
2013-01-26 02:38:00,16.7,7.9,30.02,NNW,337,0.0,0.0,68,0.00,,,0.00,WUHU21623XXSP,2013-01-26 07:38:00,
2013-01-26 02:40:00,16.5,7.7,30.02,NNW,337,0.0,0.0,68,0.00,,,0.00,WUHU21623XXSP,2013-01-26 07:40:00,
2013-01-26 02:41:00,16.5,7.7,30.02,NNW,337,0.0,0.0,68,0.00,,,0.00,WUHU21623XXSP,2013-01-26 07:41:00,
2013-01-26 02:42:00,16.5,7.7,30.02,NNW,337,0.0,0.0,68,0.00,,,0.00,WUHU21623XXSP,2013-01-26 07:42:00,
2013-01-26 02:43:00,16.5,7.7,30.02,NNW,337,0.0,0.0,68,0.00,,,0.00,WUHU21623XXSP,2013-01-26 07:43:00,
2013-01-26 02:46:00,16.5,7.7,30.02,NNW,337,0.0,0.0,68,0.00,,,0.00,WUHU21623XXSP,2013-01-26 07:46:00,
2013-01-26 02:47:00,16.3,7.6,30.02,West,270,0.0,0.0,68,0.00,,,0.00,WUHU21623XXSP,2013-01-26 07:47:00,
2013-01-26 02:48:00,16.3,7.6,30.02,West,270,0.0,0.0,68,0.00,,,0.00,WUHU21623XXSP,2013-01-26 07:48:00,
2013-01-26 02:51:00,16.3,7.9,30.02,WNW,292,0.0,0.0,69,0.00,,,0.00,WUHU21623XXSP,2013-01-26 07:51:00,
2013-01-26 02:52:00,16.3,7.9,30.02,WNW,292,0.0,0.0,69,0.00,,,0.00,WUHU21623XXSP,2013-01-26 07:52:00,
2013-01-26 02:53:00,16.3,7.9,30.02,WNW,292,0.0,0.0,69,0.00,,,0.00,WUHU21623XXSP,2013-01-26 07:53:00,
2013-01-26 02:56:00,16.3,7.9,30.02,North,0,0.0,0.0,69,0.00,,,0.00,WUHU21623XXSP,2013-01-26 07:56:00,
2013-01-26 02:58:00,16.3,7.9,30.02,North,0,0.0,0.0,69,0.00,,,0.00,WUHU21623XXSP,2013-01-26 07:58:00,
2013-01-26 03:01:00,16.2,7.7,30.02,North,0,0.0,0.0,69,0.00,,,0.00,WUHU21623XXSP,2013-01-26 08:01:00,
2013-01-26 03:02:00,16.2,7.7,30.02,North,0,0.0,0.0,69,0.00,,,0.00,WUHU21623XXSP,2013-01-26 08:02:00,
2013-01-26 03:03:00,16.2,7.7,30.02,North,0,0.0,0.0,69,0.00,,,0.00,WUHU21623XXSP,2013-01-26 08:03:00,
2013-01-26 03:06:00,16.0,7.5,30.01,NNW,337,0.0,0.0,69,0.00,,,0.00,WUHU21623XXSP,2013-01-26 08:06:00,
2013-01-26 03:07:00,16.0,7.5,30.01,NNW,337,0.0,0.0,69,0.00,,,0.00,WUHU21623XXSP,2013-01-26 08:07:00,
2013-01-26 03:08:00,16.0,7.5,30.01,NNW,337,0.0,0.0,69,0.00,,,0.00,WUHU21623XXSP,2013-01-26 08:08:00,
2013-01-26 03:11:00,16.0,7.5,30.01,NNW,337,0.0,0.0,69,0.00,,,0.00,WUHU21623XXSP,2013-01-26 08:11:00,
2013-01-26 03:12:00,16.0,7.5,30.01,NNW,337,0.0,0.0,69,0.00,,,0.00,WUHU21623XXSP,2013-01-26 08:12:00,
2013-01-26 03:13:00,16.0,7.5,30.01,NNW,337,0.0,0.0,69,0.00,,,0.00,WUHU21623XXSP,2013-01-26 08:13:00,
2013-01-26 03:17:00,15.8,7.4,30.01,WNW,292,0.0,0.0,69,0.00,,,0.00,WUHU21623XXSP,2013-01-26 08:17:00,
2013-01-26 03:18:00,15.8,7.4,30.01,WNW,292,0.0,0.0,69,0.00,,,0.00,WUHU21623XXSP,2013-01-26 08:18:00,
2013-01-26 03:22:00,15.8,7.4,30.01,WNW,292,0.0,0.0,69,0.00,,,0.00,WUHU21623XXSP,2013-01-26 08:22:00,
2013-01-26 03:23:00,15.6,7.2,30.01,WNW,292,0.0,0.0,69,0.00,,,0.00,WUHU21623XXSP,2013-01-26 08:23:00,
2013-01-26 03:27:00,15.6,7.2,30.01,WNW,292,0.0,2.5,69,0.00,,,0.00,WUHU21623XXSP,2013-01-26 08:27:00,
2013-01-26 03:28:00,15.6,7.2,30.01,WNW,292,0.0,2.5,69,0.00,,,0.00,WUHU21623XXSP,2013-01-26 08:28:00,
2013-01-26 03:29:00,15.6,7.2,30.01,WNW,292,0.0,2.5,69,0.00,,,0.00,WUHU21623XXSP,2013-01-26 08:29:00,
2013-01-26 03:32:00,15.6,7.2,30.01,WNW,292,1.6,2.5,69,0.00,,,0.00,WUHU21623XXSP,2013-01-26 08:32:00,
2013-01-26 03:33:00,15.6,7.2,30.01,WNW,292,1.6,2.5,69,0.00,,,0.00,WUHU21623XXSP,2013-01-26 08:33:00,
2013-01-26 03:34:00,15.6,7.2,30.01,WNW,292,1.6,2.5,69,0.00,,,0.00,WUHU21623XXSP,2013-01-26 08:34:00,
2013-01-26 03:37:00,15.4,7.0,30.01,NW,315,0.0,1.6,69,0.00,,,0.00,WUHU21623XXSP,2013-01-26 08:37:00,
2013-01-26 03:38:00,15.4,7.0,30.01,NNE,22,0.0,1.6,69,0.00,,,0.00,WUHU21623XXSP,2013-01-26 08:38:00,
2013-01-26 03:39:00,15.4,7.0,30.01,NNE,22,0.0,1.6,69,0.00,,,0.00,WUHU21623XXSP,2013-01-26 08:39:00,
2013-01-26 03:42:00,15.4,7.0,30.01,ENE,67,0.0,1.6,69,0.00,,,0.00,WUHU21623XXSP,2013-01-26 08:42:00,
2013-01-26 03:44:00,15.4,7.0,30.00,NW,315,0.0,0.0,69,0.00,,,0.00,WUHU21623XXSP,2013-01-26 08:44:00,
2013-01-26 03:47:00,15.3,7.2,30.01,North,0,0.0,0.0,70,0.00,,,0.00,WUHU21623XXSP,2013-01-26 08:47:00,
2013-01-26 03:48:00,15.3,7.2,30.01,North,0,0.0,0.0,70,0.00,,,0.00,WUHU21623XXSP,2013-01-26 08:48:00,
2013-01-26 03:49:00,15.3,7.2,30.01,NW,315,0.0,0.0,70,0.00,,,0.00,WUHU21623XXSP,2013-01-26 08:49:00,
2013-01-26 03:53:00,15.3,7.2,30.01,NW,315,0.0,0.0,70,0.00,,,0.00,WUHU21623XXSP,2013-01-26 08:53:00,
2013-01-26 03:54:00,15.1,7.1,30.01,NW,315,1.8,1.8,70,0.00,,,0.00,WUHU21623XXSP,2013-01-26 08:54:00,
2013-01-26 03:55:00,15.1,7.1,30.01,NW,315,1.8,1.8,70,0.00,,,0.00,WUHU21623XXSP,2013-01-26 08:55:00,
2013-01-26 03:58:00,15.1,7.1,30.01,West,270,2.5,2.5,70,0.00,,,0.00,WUHU21623XXSP,2013-01-26 08:58:00,
2013-01-26 03:59:00,15.1,7.1,30.01,West,270,2.5,2.5,70,0.00,,,0.00,WUHU21623XXSP,2013-01-26 08:59:00,
2013-01-26 04:00:00,15.1,7.1,30.01,West,270,2.5,2.5,70,0.00,,,0.00,WUHU21623XXSP,2013-01-26 09:00:00,
2013-01-26 04:03:00,15.1,7.1,30.01,WNW,292,0.0,2.5,70,0.00,,,0.00,WUHU21623XXSP,2013-01-26 09:03:00,
2013-01-26 04:05:00,15.1,7.1,30.01,WNW,292,0.0,2.5,70,0.00,,,0.00,WUHU21623XXSP,2013-01-26 09:05:00,
2013-01-26 04:08:00,14.9,6.9,30.01,WNW,292,1.1,2.5,70,0.00,,,0.00,WUHU21623XXSP,2013-01-26 09:08:00,
2013-01-26 04:10:00,14.9,6.9,30.01,WNW,292,1.1,1.1,70,0.00,,,0.00,WUHU21623XXSP,2013-01-26 09:10:00,
2013-01-26 04:11:00,14.9,6.9,30.01,WNW,292,0.0,1.1,70,0.00,,,0.00,WUHU21623XXSP,2013-01-26 09:11:00,
2013-01-26 04:13:00,14.9,6.9,30.01,NW,315,0.0,1.1,70,0.00,,,0.00,WUHU21623XXSP,2013-01-26 09:13:00,
2013-01-26 04:15:00,14.9,6.9,30.01,NW,315,0.0,1.1,70,0.00,,,0.00,WUHU21623XXSP,2013-01-26 09:15:00,
2013-01-26 04:16:00,14.9,6.9,30.01,NW,315,0.0,1.1,70,0.00,,,0.00,WUHU21623XXSP,2013-01-26 09:16:00,
2013-01-26 04:18:00,14.9,6.9,30.01,NNW,337,0.0,0.0,70,0.00,,,0.00,WUHU21623XXSP,2013-01-26 09:18:00,
2013-01-26 04:20:00,14.7,6.7,30.01,West,270,0.0,0.0,70,0.00,,,0.00,WUHU21623XXSP,2013-01-26 09:20:00,
2013-01-26 04:21:00,14.7,6.7,30.01,West,270,0.0,0.0,70,0.00,,,0.00,WUHU21623XXSP,2013-01-26 09:21:00,
2013-01-26 04:23:00,14.7,6.7,30.01,WNW,292,1.1,1.1,70,0.00,,,0.00,WUHU21623XXSP,2013-01-26 09:23:00,
2013-01-26 04:24:00,14.7,6.7,30.01,WNW,292,1.1,1.1,70,0.00,,,0.00,WUHU21623XXSP,2013-01-26 09:24:00,
2013-01-26 04:25:00,14.7,6.7,30.01,WNW,292,1.1,1.1,70,0.00,,,0.00,WUHU21623XXSP,2013-01-26 09:25:00,
2013-01-26 04:26:00,14.7,6.7,30.01,NNW,337,0.0,1.1,70,0.00,,,0.00,WUHU21623XXSP,2013-01-26 09:26:00,
2013-01-26 04:28:00,14.7,6.7,30.01,NW,315,0.0,1.1,70,0.00,,,0.00,WUHU21623XXSP,2013-01-26 09:28:00,
2013-01-26 04:29:00,14.7,6.7,30.01,NW,315,0.0,1.1,70,0.00,,,0.00,WUHU21623XXSP,2013-01-26 09:29:00,
2013-01-26 04:30:00,14.7,6.7,30.01,North,0,0.0,1.1,70,0.00,,,0.00,WUHU21623XXSP,2013-01-26 09:30:00,
2013-01-26 04:31:00,14.7,6.7,30.01,North,0,0.0,1.1,70,0.00,,,0.00,WUHU21623XXSP,2013-01-26 09:31:00,
2013-01-26 04:33:00,14.7,6.7,30.01,NW,315,0.0,0.0,70,0.00,,,0.00,WUHU21623XXSP,2013-01-26 09:33:00,
2013-01-26 04:34:00,14.7,6.7,30.01,NW,315,0.0,0.0,70,0.00,,,0.00,WUHU21623XXSP,2013-01-26 09:34:00,
2013-01-26 04:35:00,14.7,6.7,30.01,NW,315,0.0,0.0,70,0.00,,,0.00,WUHU21623XXSP,2013-01-26 09:35:00,
2013-01-26 04:36:00,14.5,6.6,30.01,NNE,22,0.0,0.0,70,0.00,,,0.00,WUHU21623XXSP,2013-01-26 09:36:00,
2013-01-26 04:39:00,14.5,6.6,30.01,NW,315,0.0,0.0,70,0.00,,,0.00,WUHU21623XXSP,2013-01-26 09:39:00,
2013-01-26 04:40:00,14.5,6.6,30.00,WNW,292,0.0,0.0,70,0.00,,,0.00,WUHU21623XXSP,2013-01-26 09:40:00,
2013-01-26 04:42:00,14.5,6.6,30.00,WNW,292,0.0,0.0,70,0.00,,,0.00,WUHU21623XXSP,2013-01-26 09:42:00,
2013-01-26 04:44:00,14.5,6.6,30.00,NW,315,0.0,0.0,70,0.00,,,0.00,WUHU21623XXSP,2013-01-26 09:44:00,
2013-01-26 04:45:00,14.5,6.6,30.00,NW,315,0.0,0.0,70,0.00,,,0.00,WUHU21623XXSP,2013-01-26 09:45:00,
2013-01-26 04:47:00,14.4,6.6,30.00,NW,315,0.0,0.0,70,0.00,,,0.00,WUHU21623XXSP,2013-01-26 09:47:00,
2013-01-26 04:49:00,14.4,6.4,30.00,WNW,292,0.0,0.0,70,0.00,,,0.00,WUHU21623XXSP,2013-01-26 09:49:00,
2013-01-26 04:50:00,14.4,6.4,30.00,WNW,292,0.0,0.0,70,0.00,,,0.00,WUHU21623XXSP,2013-01-26 09:50:00,
2013-01-26 04:52:00,14.4,6.4,30.00,North,0,0.0,0.0,70,0.00,,,0.00,WUHU21623XXSP,2013-01-26 09:52:00,
2013-01-26 04:54:00,14.4,6.4,30.00,NNW,337,0.0,0.0,70,0.00,,,0.00,WUHU21623XXSP,2013-01-26 09:54:00,
2013-01-26 04:55:00,14.2,6.2,30.00,NW,315,0.0,0.0,70,0.00,,,0.00,WUHU21623XXSP,2013-01-26 09:55:00,
2013-01-26 04:57:00,14.2,6.2,30.00,NNE,22,1.1,1.1,70,0.00,,,0.00,WUHU21623XXSP,2013-01-26 09:57:00,
2013-01-26 04:59:00,14.2,6.2,30.01,West,270,0.0,1.1,70,0.00,,,0.00,WUHU21623XXSP,2013-01-26 09:59:00,
2013-01-26 05:00:00,14.2,6.2,30.01,West,270,0.0,1.1,70,0.00,,,0.00,WUHU21623XXSP,2013-01-26 10:00:00,
2013-01-26 05:02:00,14.2,6.2,30.01,West,270,0.0,1.1,70,0.00,,,0.00,WUHU21623XXSP,2013-01-26 10:02:00,
2013-01-26 05:04:00,14.2,6.2,30.01,West,270,0.0,1.1,70,0.00,,,0.00,WUHU21623XXSP,2013-01-26 10:04:00,
2013-01-26 05:05:00,14.2,6.2,30.01,West,270,0.0,1.1,70,0.00,,,0.00,WUHU21623XXSP,2013-01-26 10:05:00,
2013-01-26 05:07:00,14.2,6.2,30.01,NNW,337,0.0,0.0,70,0.00,,,0.00,WUHU21623XXSP,2013-01-26 10:07:00,
2013-01-26 05:09:00,14.2,6.2,30.01,NNW,337,0.0,0.0,70,0.00,,,0.00,WUHU21623XXSP,2013-01-26 10:09:00,
2013-01-26 05:10:00,14.2,6.2,30.01,NNW,337,0.0,0.0,70,0.00,,,0.00,WUHU21623XXSP,2013-01-26 10:10:00,
2013-01-26 05:12:00,14.2,6.2,30.01,NNW,337,0.0,0.0,70,0.00,,,0.00,WUHU21623XXSP,2013-01-26 10:12:00,
2013-01-26 05:14:00,14.2,6.2,30.01,NW,315,0.0,0.0,70,0.00,,,0.00,WUHU21623XXSP,2013-01-26 10:14:00,
2013-01-26 05:15:00,14.2,6.2,30.01,NW,315,0.0,0.0,70,0.00,,,0.00,WUHU21623XXSP,2013-01-26 10:15:00,
2013-01-26 05:17:00,14.2,6.2,30.01,WNW,292,1.1,1.1,70,0.00,,,0.00,WUHU21623XXSP,2013-01-26 10:17:00,
2013-01-26 05:19:00,14.2,6.2,30.01,NNW,337,1.8,1.8,70,0.00,,,0.00,WUHU21623XXSP,2013-01-26 10:19:00,
2013-01-26 05:20:00,14.2,6.2,30.01,NNW,337,1.8,1.8,70,0.00,,,0.00,WUHU21623XXSP,2013-01-26 10:20:00,
2013-01-26 05:21:00,14.0,6.1,30.01,NNW,337,0.0,1.8,70,0.00,,,0.00,WUHU21623XXSP,2013-01-26 10:21:00,
2013-01-26 05:22:00,14.0,6.1,30.01,NNW,337,0.0,1.8,70,0.00,,,0.00,WUHU21623XXSP,2013-01-26 10:22:00,
2013-01-26 05:24:00,14.0,6.1,30.01,WNW,292,0.0,1.8,70,0.00,,,0.00,WUHU21623XXSP,2013-01-26 10:24:00,
2013-01-26 05:25:00,13.8,5.9,30.01,WNW,292,1.8,1.8,70,0.00,,,0.00,WUHU21623XXSP,2013-01-26 10:25:00,
2013-01-26 05:26:00,13.8,5.9,30.01,WNW,292,1.8,1.8,70,0.00,,,0.00,WUHU21623XXSP,2013-01-26 10:26:00,
2013-01-26 05:27:00,13.8,5.9,30.01,WNW,292,1.6,1.8,70,0.00,,,0.00,WUHU21623XXSP,2013-01-26 10:27:00,
2013-01-26 05:30:00,13.8,5.9,30.01,WNW,292,1.6,1.8,71,0.00,,,0.00,WUHU21623XXSP,2013-01-26 10:30:00,
2013-01-26 05:31:00,13.8,6.2,30.01,NNE,22,0.0,1.8,71,0.00,,,0.00,WUHU21623XXSP,2013-01-26 10:31:00,
2013-01-26 05:33:00,13.8,6.2,30.01,NNE,22,0.0,1.8,71,0.00,,,0.00,WUHU21623XXSP,2013-01-26 10:33:00,
2013-01-26 05:35:00,13.8,6.2,30.01,North,0,0.0,1.6,71,0.00,,,0.00,WUHU21623XXSP,2013-01-26 10:35:00,
2013-01-26 05:36:00,13.8,6.2,30.01,NNE,22,0.0,1.6,71,0.00,,,0.00,WUHU21623XXSP,2013-01-26 10:36:00,
2013-01-26 05:38:00,13.8,6.2,30.01,SW,225,0.0,1.6,71,0.00,,,0.00,WUHU21623XXSP,2013-01-26 10:38:00,
2013-01-26 05:40:00,13.8,6.2,30.01,NNE,22,0.0,0.0,71,0.00,,,0.00,WUHU21623XXSP,2013-01-26 10:40:00,
2013-01-26 05:41:00,13.8,6.2,30.01,NNE,22,0.0,0.0,71,0.00,,,0.00,WUHU21623XXSP,2013-01-26 10:41:00,
2013-01-26 05:43:00,13.8,6.2,30.02,North,0,0.0,0.0,71,0.00,,,0.00,WUHU21623XXSP,2013-01-26 10:43:00,
2013-01-26 05:45:00,13.8,6.2,30.02,North,0,2.2,2.2,71,0.00,,,0.00,WUHU21623XXSP,2013-01-26 10:45:00,
2013-01-26 05:46:00,13.8,6.2,30.02,North,0,2.2,2.2,71,0.00,,,0.00,WUHU21623XXSP,2013-01-26 10:46:00,
2013-01-26 05:48:00,13.8,6.2,30.02,WNW,292,0.0,2.2,71,0.00,,,0.00,WUHU21623XXSP,2013-01-26 10:48:00,
2013-01-26 05:51:00,13.8,6.2,30.02,North,0,1.3,2.2,71,0.00,,,0.00,WUHU21623XXSP,2013-01-26 10:51:00,
2013-01-26 05:53:00,13.6,6.0,30.02,NNW,337,1.6,2.2,71,0.00,,,0.00,WUHU21623XXSP,2013-01-26 10:53:00,
2013-01-26 05:56:00,13.6,6.0,30.02,NW,315,0.0,1.6,71,0.00,,,0.00,WUHU21623XXSP,2013-01-26 10:56:00,
2013-01-26 05:57:00,13.6,6.0,30.02,NW,315,0.0,1.6,71,0.00,,,0.00,WUHU21623XXSP,2013-01-26 10:57:00,
2013-01-26 05:58:00,13.6,5.7,30.02,NW,315,0.0,1.6,70,0.00,,,0.00,WUHU21623XXSP,2013-01-26 10:58:00,
2013-01-26 06:01:00,13.6,5.7,30.02,NW,315,0.0,1.6,70,0.00,,,0.00,WUHU21623XXSP,2013-01-26 11:01:00,
2013-01-26 06:02:00,13.6,5.7,30.02,NW,315,0.0,1.6,70,0.00,,,0.00,WUHU21623XXSP,2013-01-26 11:02:00,
2013-01-26 06:04:00,13.6,5.7,30.02,West,270,0.0,0.0,70,0.00,,,0.00,WUHU21623XXSP,2013-01-26 11:04:00,
2013-01-26 06:06:00,13.6,5.7,30.02,NNW,337,0.0,0.0,70,0.00,,,0.00,WUHU21623XXSP,2013-01-26 11:06:00,
2013-01-26 06:07:00,13.6,5.7,30.02,NNW,337,0.0,0.0,70,0.00,,,0.00,WUHU21623XXSP,2013-01-26 11:07:00,
2013-01-26 06:09:00,13.5,5.5,30.02,North,0,0.0,0.0,70,0.00,,,0.00,WUHU21623XXSP,2013-01-26 11:09:00,
2013-01-26 06:11:00,13.5,5.5,30.02,NW,315,1.6,1.6,70,0.00,,,0.00,WUHU21623XXSP,2013-01-26 11:11:00,
2013-01-26 06:12:00,13.5,5.5,30.02,NW,315,1.6,1.6,70,0.00,,,0.00,WUHU21623XXSP,2013-01-26 11:12:00,
2013-01-26 06:14:00,13.3,5.4,30.02,North,0,0.0,1.6,70,0.00,,,0.00,WUHU21623XXSP,2013-01-26 11:14:00,
2013-01-26 06:16:00,13.3,5.4,30.03,WSW,247,0.0,1.6,70,0.00,,,0.00,WUHU21623XXSP,2013-01-26 11:16:00,
2013-01-26 06:17:00,13.3,5.4,30.03,WSW,247,0.0,1.6,70,0.00,,,0.00,WUHU21623XXSP,2013-01-26 11:17:00,
2013-01-26 06:19:00,13.3,5.4,30.03,NW,315,0.0,1.6,70,0.00,,,0.00,WUHU21623XXSP,2013-01-26 11:19:00,
2013-01-26 06:21:00,13.3,5.4,30.03,NNW,337,0.0,0.0,70,0.00,,,0.00,WUHU21623XXSP,2013-01-26 11:21:00,
2013-01-26 06:22:00,13.3,5.4,30.03,NNW,337,0.0,0.0,70,0.00,,,0.00,WUHU21623XXSP,2013-01-26 11:22:00,
2013-01-26 06:25:00,13.3,5.4,30.03,NNW,337,0.0,0.0,70,0.00,,,0.00,WUHU21623XXSP,2013-01-26 11:25:00,
2013-01-26 06:26:00,13.3,5.4,30.03,West,270,1.1,1.1,70,0.00,,,0.00,WUHU21623XXSP,2013-01-26 11:26:00,
2013-01-26 06:27:00,13.3,5.4,30.03,WNW,292,0.0,1.1,70,0.00,,,0.00,WUHU21623XXSP,2013-01-26 11:27:00,
2013-01-26 06:28:00,13.3,5.4,30.03,WNW,292,0.0,1.1,70,0.00,,,0.00,WUHU21623XXSP,2013-01-26 11:28:00,
2013-01-26 06:30:00,13.3,5.4,30.03,WNW,292,0.0,1.1,70,0.00,,,0.00,WUHU21623XXSP,2013-01-26 11:30:00,
2013-01-26 06:31:00,13.3,5.4,30.03,NW,315,2.2,2.2,70,0.00,,,0.00,WUHU21623XXSP,2013-01-26 11:31:00,
2013-01-26 06:32:00,13.3,5.4,30.03,NW,315,2.2,2.2,70,0.00,,,0.00,WUHU21623XXSP,2013-01-26 11:32:00,
2013-01-26 06:33:00,13.3,5.4,30.03,NW,315,2.2,2.2,70,0.00,,,0.00,WUHU21623XXSP,2013-01-26 11:33:00,
2013-01-26 06:35:00,13.3,5.4,30.03,WNW,292,0.0,2.2,70,0.00,,,0.00,WUHU21623XXSP,2013-01-26 11:35:00,
2013-01-26 06:36:00,13.3,5.4,30.03,NW,315,0.0,2.2,70,0.00,,,0.00,WUHU21623XXSP,2013-01-26 11:36:00,
2013-01-26 06:37:00,13.3,5.4,30.03,NW,315,0.0,2.2,70,0.00,,,0.00,WUHU21623XXSP,2013-01-26 11:37:00,
2013-01-26 06:38:00,13.3,5.4,30.03,NW,315,0.0,2.2,70,0.00,,,0.00,WUHU21623XXSP,2013-01-26 11:38:00,
2013-01-26 06:40:00,13.3,5.4,30.03,NNE,22,0.0,2.2,70,0.00,,,0.00,WUHU21623XXSP,2013-01-26 11:40:00,
2013-01-26 06:41:00,13.3,5.4,30.03,NNE,22,0.0,0.0,70,0.00,,,0.00,WUHU21623XXSP,2013-01-26 11:41:00,
2013-01-26 06:43:00,13.3,5.4,30.03,NW,315,0.0,0.0,70,0.00,,,0.00,WUHU21623XXSP,2013-01-26 11:43:00,
2013-01-26 06:46:00,13.3,5.4,30.04,WNW,292,0.0,0.0,70,0.00,,,0.00,WUHU21623XXSP,2013-01-26 11:46:00,
2013-01-26 06:47:00,13.3,5.4,30.04,WNW,292,0.0,0.0,70,0.00,,,0.00,WUHU21623XXSP,2013-01-26 11:47:00,
2013-01-26 06:48:00,13.3,5.4,30.04,WNW,292,0.0,0.0,70,0.00,,,0.00,WUHU21623XXSP,2013-01-26 11:48:00,
2013-01-26 06:51:00,13.1,5.2,30.04,WNW,292,0.0,5.4,70,0.00,,,0.00,WUHU21623XXSP,2013-01-26 11:51:00,
2013-01-26 06:52:00,13.1,5.2,30.04,WNW,292,0.0,5.4,70,0.00,,,0.00,WUHU21623XXSP,2013-01-26 11:52:00,
2013-01-26 06:53:00,13.1,5.2,30.03,NNE,22,0.0,5.4,70,0.00,,,0.00,WUHU21623XXSP,2013-01-26 11:53:00,
2013-01-26 06:56:00,13.1,5.2,30.04,NW,315,1.8,5.4,70,0.00,,,0.00,WUHU21623XXSP,2013-01-26 11:56:00,
2013-01-26 06:57:00,13.1,5.2,30.03,NNE,22,0.0,5.4,70,0.00,,,0.00,WUHU21623XXSP,2013-01-26 11:57:00,
2013-01-26 06:58:00,13.1,5.2,30.03,NNE,22,0.0,5.4,70,0.00,,,0.00,WUHU21623XXSP,2013-01-26 11:58:00,
2013-01-26 07:01:00,13.1,4.8,30.04,WNW,292,2.5,2.9,69,0.00,,,0.00,WUHU21623XXSP,2013-01-26 12:01:00,
2013-01-26 07:02:00,13.1,4.8,30.04,WNW,292,2.5,2.9,69,0.00,,,0.00,WUHU21623XXSP,2013-01-26 12:02:00,
2013-01-26 07:03:00,13.1,4.8,30.04,WNW,292,2.5,2.9,69,0.00,,,0.00,WUHU21623XXSP,2013-01-26 12:03:00,
2013-01-26 07:04:00,13.1,4.8,30.04,NNE,22,0.0,2.9,69,0.00,,,0.00,WUHU21623XXSP,2013-01-26 12:04:00,
2013-01-26 07:06:00,13.1,4.8,30.04,NW,315,0.0,2.9,69,0.00,,,0.00,WUHU21623XXSP,2013-01-26 12:06:00,
2013-01-26 07:08:00,13.1,4.8,30.04,NW,315,1.3,2.9,69,0.00,,,0.00,WUHU21623XXSP,2013-01-26 12:08:00,
2013-01-26 07:09:00,13.1,4.8,30.04,NW,315,1.3,2.9,69,0.00,,,0.00,WUHU21623XXSP,2013-01-26 12:09:00,
2013-01-26 07:11:00,13.1,4.8,30.04,WNW,292,1.3,1.3,69,0.00,,,0.00,WUHU21623XXSP,2013-01-26 12:11:00,
2013-01-26 07:13:00,12.9,4.7,30.04,West,270,1.6,1.6,69,0.00,,,0.00,WUHU21623XXSP,2013-01-26 12:13:00,
2013-01-26 07:14:00,12.9,4.7,30.04,West,270,1.6,1.6,69,0.00,,,0.00,WUHU21623XXSP,2013-01-26 12:14:00,
2013-01-26 07:17:00,12.9,4.7,30.04,NNE,22,0.0,1.8,69,0.00,,,0.00,WUHU21623XXSP,2013-01-26 12:17:00,
2013-01-26 07:18:00,12.9,4.7,30.04,NNE,22,0.0,1.8,69,0.00,,,0.00,WUHU21623XXSP,2013-01-26 12:18:00,
2013-01-26 07:19:00,12.9,4.7,30.04,NNE,22,1.1,1.8,69,0.00,,,0.00,WUHU21623XXSP,2013-01-26 12:19:00,
2013-01-26 07:22:00,12.9,4.7,30.04,WNW,292,1.1,1.8,69,0.00,,,0.00,WUHU21623XXSP,2013-01-26 12:22:00,
2013-01-26 07:23:00,12.9,4.7,30.04,North,0,0.0,1.8,69,0.00,,,0.00,WUHU21623XXSP,2013-01-26 12:23:00,
2013-01-26 07:24:00,12.9,4.7,30.04,North,0,0.0,1.1,69,0.00,,,0.00,WUHU21623XXSP,2013-01-26 12:24:00,
2013-01-26 07:27:00,12.9,4.7,30.04,North,0,0.0,1.1,69,0.00,,,0.00,WUHU21623XXSP,2013-01-26 12:27:00,
2013-01-26 07:28:00,12.9,4.7,30.04,North,0,0.0,1.1,69,0.00,,,0.00,WUHU21623XXSP,2013-01-26 12:28:00,
2013-01-26 07:29:00,12.9,4.7,30.04,North,0,0.0,1.1,69,0.00,,,0.00,WUHU21623XXSP,2013-01-26 12:29:00,
2013-01-26 07:32:00,12.9,4.7,30.04,West,270,2.9,2.9,69,0.00,,,0.00,WUHU21623XXSP,2013-01-26 12:32:00,
2013-01-26 07:33:00,12.9,4.7,30.04,West,270,2.9,2.9,69,0.00,,,0.00,WUHU21623XXSP,2013-01-26 12:33:00,
2013-01-26 07:34:00,12.9,4.7,30.04,WNW,292,0.0,2.9,69,0.00,,,0.00,WUHU21623XXSP,2013-01-26 12:34:00,
2013-01-26 07:35:00,12.9,4.7,30.04,WNW,292,0.0,2.9,69,0.00,,,0.00,WUHU21623XXSP,2013-01-26 12:35:00,
2013-01-26 07:38:00,12.9,4.7,30.04,West,270,1.3,2.9,69,0.00,,,0.00,WUHU21623XXSP,2013-01-26 12:38:00,
2013-01-26 07:41:00,12.9,4.7,30.04,North,0,2.2,2.9,69,0.00,,,0.00,WUHU21623XXSP,2013-01-26 12:41:00,
2013-01-26 07:43:00,12.9,4.3,30.04,NE,45,0.0,2.2,68,0.00,,,0.00,WUHU21623XXSP,2013-01-26 12:43:00,
2013-01-26 07:46:00,13.1,4.3,30.04,NE,45,0.0,2.2,68,0.00,,,0.00,WUHU21623XXSP,2013-01-26 12:46:00,
2013-01-26 07:48:00,13.1,4.5,30.04,West,270,3.4,3.4,68,0.00,,,0.00,WUHU21623XXSP,2013-01-26 12:48:00,
2013-01-26 07:51:00,13.1,4.5,30.04,NE,45,2.0,3.4,68,0.00,,,0.00,WUHU21623XXSP,2013-01-26 12:51:00,
2013-01-26 07:53:00,13.1,4.5,30.04,North,0,2.2,3.4,68,0.00,,,0.00,WUHU21623XXSP,2013-01-26 12:53:00,
2013-01-26 07:56:00,13.1,4.5,30.04,North,0,2.2,3.4,68,0.00,,,0.00,WUHU21623XXSP,2013-01-26 12:56:00,
2013-01-26 07:57:00,13.1,4.5,30.04,NW,315,0.0,2.2,68,0.00,,,0.00,WUHU21623XXSP,2013-01-26 12:57:00,
2013-01-26 07:58:00,13.1,4.5,30.04,NW,315,0.0,2.2,68,0.00,,,0.00,WUHU21623XXSP,2013-01-26 12:58:00,
2013-01-26 08:02:00,13.1,4.2,30.04,NW,315,1.6,2.2,67,0.00,,,0.00,WUHU21623XXSP,2013-01-26 13:02:00,
2013-01-26 08:03:00,13.1,4.2,30.04,NW,315,1.6,2.2,67,0.00,,,0.00,WUHU21623XXSP,2013-01-26 13:03:00,
2013-01-26 08:04:00,13.1,4.2,30.04,ENE,67,2.0,2.2,67,0.00,,,0.00,WUHU21623XXSP,2013-01-26 13:04:00,
2013-01-26 08:07:00,13.3,4.7,30.04,WNW,292,2.2,2.2,68,0.00,,,0.00,WUHU21623XXSP,2013-01-26 13:07:00,
2013-01-26 08:08:00,13.3,4.7,30.05,WNW,292,2.0,2.2,68,0.00,,,0.00,WUHU21623XXSP,2013-01-26 13:08:00,
2013-01-26 08:09:00,13.3,4.7,30.05,WNW,292,2.0,2.2,68,0.00,,,0.00,WUHU21623XXSP,2013-01-26 13:09:00,
2013-01-26 08:12:00,13.3,4.3,30.04,North,0,2.9,4.7,67,0.00,,,0.00,WUHU21623XXSP,2013-01-26 13:12:00,
2013-01-26 08:13:00,13.3,4.3,30.04,North,0,2.9,4.7,67,0.00,,,0.00,WUHU21623XXSP,2013-01-26 13:13:00,
2013-01-26 08:14:00,13.3,4.3,30.04,NW,315,0.0,4.7,67,0.00,,,0.00,WUHU21623XXSP,2013-01-26 13:14:00,
2013-01-26 08:17:00,13.6,4.7,30.04,WNW,292,5.4,5.4,67,0.00,,,0.00,WUHU21623XXSP,2013-01-26 13:17:00,
2013-01-26 08:18:00,13.6,4.7,30.04,WNW,292,5.4,5.4,67,0.00,,,0.00,WUHU21623XXSP,2013-01-26 13:18:00,
2013-01-26 08:19:00,13.6,4.7,30.04,North,0,5.6,5.6,67,0.00,,,0.00,WUHU21623XXSP,2013-01-26 13:19:00,
2013-01-26 08:22:00,13.6,4.7,30.04,West,270,1.3,5.6,67,0.00,,,0.00,WUHU21623XXSP,2013-01-26 13:22:00,
2013-01-26 08:23:00,13.6,4.4,30.04,NW,315,0.0,5.6,66,0.00,,,0.00,WUHU21623XXSP,2013-01-26 13:23:00,
2013-01-26 08:24:00,13.6,4.4,30.04,NW,315,0.0,5.6,66,0.00,,,0.00,WUHU21623XXSP,2013-01-26 13:24:00,
2013-01-26 08:27:00,13.8,4.5,30.04,West,270,0.0,5.6,66,0.00,,,0.00,WUHU21623XXSP,2013-01-26 13:27:00,
2013-01-26 08:28:00,13.8,4.5,30.04,West,270,0.0,5.6,66,0.00,,,0.00,WUHU21623XXSP,2013-01-26 13:28:00,
2013-01-26 08:29:00,13.8,4.5,30.04,West,270,0.0,1.6,66,0.00,,,0.00,WUHU21623XXSP,2013-01-26 13:29:00,
2013-01-26 08:32:00,14.2,4.9,30.04,West,270,1.6,3.1,66,0.00,,,0.00,WUHU21623XXSP,2013-01-26 13:32:00,
2013-01-26 08:33:00,14.2,4.9,30.04,West,270,1.6,3.1,66,0.00,,,0.00,WUHU21623XXSP,2013-01-26 13:33:00,
2013-01-26 08:34:00,14.2,4.9,30.05,WNW,292,0.0,3.1,66,0.00,,,0.00,WUHU21623XXSP,2013-01-26 13:34:00,
2013-01-26 08:37:00,14.2,4.9,30.04,NNE,22,3.1,3.1,66,0.00,,,0.00,WUHU21623XXSP,2013-01-26 13:37:00,
2013-01-26 08:38:00,14.4,5.0,30.04,WNW,292,1.6,3.1,66,0.00,,,0.00,WUHU21623XXSP,2013-01-26 13:38:00,
2013-01-26 08:39:00,14.4,5.0,30.04,WNW,292,1.6,3.1,66,0.00,,,0.00,WUHU21623XXSP,2013-01-26 13:39:00,
2013-01-26 08:40:00,14.5,4.9,30.05,West,270,2.5,3.1,65,0.00,,,0.00,WUHU21623XXSP,2013-01-26 13:40:00,
2013-01-26 08:43:00,14.5,4.9,30.04,WNW,292,3.8,3.8,65,0.00,,,0.00,WUHU21623XXSP,2013-01-26 13:43:00,
2013-01-26 08:44:00,14.5,4.9,30.04,WNW,292,3.8,3.8,65,0.00,,,0.00,WUHU21623XXSP,2013-01-26 13:44:00,
2013-01-26 08:45:00,14.7,5.0,30.05,WNW,292,2.2,3.8,65,0.00,,,0.00,WUHU21623XXSP,2013-01-26 13:45:00,
2013-01-26 08:48:00,14.7,5.0,30.05,NNE,22,3.1,3.8,65,0.00,,,0.00,WUHU21623XXSP,2013-01-26 13:48:00,
2013-01-26 08:49:00,14.9,5.2,30.05,East,90,2.5,3.8,65,0.00,,,0.00,WUHU21623XXSP,2013-01-26 13:49:00,
2013-01-26 08:50:00,14.9,5.2,30.05,East,90,2.5,3.8,65,0.00,,,0.00,WUHU21623XXSP,2013-01-26 13:50:00,
2013-01-26 08:53:00,15.1,5.0,30.05,WSW,247,2.5,3.1,64,0.00,,,0.00,WUHU21623XXSP,2013-01-26 13:53:00,
2013-01-26 08:54:00,15.1,5.0,30.05,WSW,247,2.5,3.1,64,0.00,,,0.00,WUHU21623XXSP,2013-01-26 13:54:00,
2013-01-26 08:55:00,15.1,5.0,30.05,NW,315,0.0,3.1,64,0.00,,,0.00,WUHU21623XXSP,2013-01-26 13:55:00,
2013-01-26 08:58:00,15.3,5.2,30.06,WNW,292,0.0,2.9,64,0.00,,,0.00,WUHU21623XXSP,2013-01-26 13:58:00,
2013-01-26 08:59:00,15.3,5.2,30.06,WNW,292,0.0,2.9,64,0.00,,,0.00,WUHU21623XXSP,2013-01-26 13:59:00,
2013-01-26 09:00:00,15.4,5.3,30.06,West,270,0.0,2.9,64,0.00,,,0.00,WUHU21623XXSP,2013-01-26 14:00:00,
2013-01-26 09:03:00,15.4,5.3,30.06,NNW,337,1.3,1.3,64,0.00,,,0.00,WUHU21623XXSP,2013-01-26 14:03:00,
2013-01-26 09:04:00,15.6,5.1,30.06,NW,315,0.0,1.3,63,0.00,,,0.00,WUHU21623XXSP,2013-01-26 14:04:00,
2013-01-26 09:05:00,15.6,5.1,30.06,NW,315,0.0,1.3,63,0.00,,,0.00,WUHU21623XXSP,2013-01-26 14:05:00,
2013-01-26 09:08:00,15.6,5.1,30.06,NW,315,0.0,1.3,63,0.00,,,0.00,WUHU21623XXSP,2013-01-26 14:08:00,
2013-01-26 09:09:00,15.6,5.1,30.06,NW,315,0.0,1.3,63,0.00,,,0.00,WUHU21623XXSP,2013-01-26 14:09:00,
2013-01-26 09:10:00,15.6,5.1,30.06,NNE,22,0.0,1.3,63,0.00,,,0.00,WUHU21623XXSP,2013-01-26 14:10:00,
2013-01-26 09:14:00,15.8,5.3,30.06,West,270,1.6,1.6,63,0.00,,,0.00,WUHU21623XXSP,2013-01-26 14:14:00,
2013-01-26 09:15:00,16.0,5.5,30.06,NNE,22,1.1,1.6,63,0.00,,,0.00,WUHU21623XXSP,2013-01-26 14:15:00,
2013-01-26 09:19:00,16.0,5.5,30.06,West,270,2.9,2.9,63,0.00,,,0.00,WUHU21623XXSP,2013-01-26 14:19:00,
2013-01-26 09:20:00,16.0,5.5,30.06,West,270,2.9,2.9,63,0.00,,,0.00,WUHU21623XXSP,2013-01-26 14:20:00,
2013-01-26 09:24:00,16.0,5.1,30.06,NNW,337,2.5,5.4,62,0.00,,,0.00,WUHU21623XXSP,2013-01-26 14:24:00,
2013-01-26 09:25:00,16.2,5.3,30.06,North,0,1.1,5.4,62,0.00,,,0.00,WUHU21623XXSP,2013-01-26 14:25:00,
2013-01-26 09:29:00,16.2,5.0,30.06,North,0,2.9,10.5,61,0.00,,,0.00,WUHU21623XXSP,2013-01-26 14:29:00,
2013-01-26 09:30:00,16.2,5.0,30.06,North,0,2.9,10.5,61,0.00,,,0.00,WUHU21623XXSP,2013-01-26 14:30:00,
2013-01-26 09:34:00,16.3,5.2,30.06,NW,315,2.2,10.5,61,0.00,,,0.00,WUHU21623XXSP,2013-01-26 14:34:00,
2013-01-26 09:36:00,16.3,5.2,30.06,WSW,247,3.8,10.5,61,0.00,,,0.00,WUHU21623XXSP,2013-01-26 14:36:00,
2013-01-26 09:39:00,16.3,5.2,30.07,NNE,22,2.7,3.8,61,0.00,,,0.00,WUHU21623XXSP,2013-01-26 14:39:00,
2013-01-26 09:41:00,16.3,5.2,30.06,WNW,292,3.6,3.8,61,0.00,,,0.00,WUHU21623XXSP,2013-01-26 14:41:00,
2013-01-26 09:44:00,16.5,5.0,30.07,NW,315,0.0,3.8,60,0.00,,,0.00,WUHU21623XXSP,2013-01-26 14:44:00,
2013-01-26 09:46:00,16.5,5.0,30.07,NW,315,0.0,3.6,60,0.00,,,0.00,WUHU21623XXSP,2013-01-26 14:46:00,
2013-01-26 09:49:00,16.7,5.2,30.07,NNW,337,4.5,4.5,60,0.00,,,0.00,WUHU21623XXSP,2013-01-26 14:49:00,
2013-01-26 09:51:00,16.7,5.2,30.07,NNE,22,0.9,4.5,60,0.00,,,0.00,WUHU21623XXSP,2013-01-26 14:51:00,
2013-01-26 09:54:00,16.7,5.2,30.06,North,0,0.7,4.5,60,0.00,,,0.00,WUHU21623XXSP,2013-01-26 14:54:00,
2013-01-26 09:56:00,16.9,5.2,30.06,North,0,0.7,4.5,60,0.00,,,0.00,WUHU21623XXSP,2013-01-26 14:56:00,
2013-01-26 09:59:00,16.9,5.4,30.06,NNW,337,0.0,6.0,60,0.00,,,0.00,WUHU21623XXSP,2013-01-26 14:59:00,
2013-01-26 10:01:00,16.9,5.4,30.06,NNW,337,0.0,6.0,60,0.00,,,0.00,WUHU21623XXSP,2013-01-26 15:01:00,
2013-01-26 10:04:00,16.9,5.4,30.06,WNW,292,5.1,6.0,60,0.00,,,0.00,WUHU21623XXSP,2013-01-26 15:04:00,
2013-01-26 10:05:00,16.9,5.4,30.06,WNW,292,5.1,6.0,60,0.00,,,0.00,WUHU21623XXSP,2013-01-26 15:05:00,
2013-01-26 10:06:00,16.9,5.4,30.06,WNW,292,1.3,6.0,60,0.00,,,0.00,WUHU21623XXSP,2013-01-26 15:06:00,
2013-01-26 10:09:00,16.9,5.4,30.06,WNW,292,4.0,5.1,60,0.00,,,0.00,WUHU21623XXSP,2013-01-26 15:09:00,
2013-01-26 10:10:00,17.2,5.7,30.06,WNW,292,4.0,5.1,60,0.00,,,0.00,WUHU21623XXSP,2013-01-26 15:10:00,
2013-01-26 10:11:00,17.2,5.7,30.06,WNW,292,4.0,5.1,60,0.00,,,0.00,WUHU21623XXSP,2013-01-26 15:11:00,
2013-01-26 10:14:00,17.2,5.3,30.06,NNE,22,2.5,4.0,59,0.00,,,0.00,WUHU21623XXSP,2013-01-26 15:14:00,
2013-01-26 10:15:00,17.2,5.3,30.06,NNE,22,2.5,4.0,59,0.00,,,0.00,WUHU21623XXSP,2013-01-26 15:15:00,
2013-01-26 10:16:00,17.2,5.3,30.06,West,270,3.6,4.0,59,0.00,,,0.00,WUHU21623XXSP,2013-01-26 15:16:00,
2013-01-26 10:17:00,17.2,5.3,30.06,West,270,3.6,4.0,59,0.00,,,0.00,WUHU21623XXSP,2013-01-26 15:17:00,
2013-01-26 10:20:00,17.2,5.3,30.06,WSW,247,5.6,5.6,59,0.00,,,0.00,WUHU21623XXSP,2013-01-26 15:20:00,
2013-01-26 10:21:00,17.2,5.3,30.06,West,270,3.1,5.6,59,0.00,,,0.00,WUHU21623XXSP,2013-01-26 15:21:00,
2013-01-26 10:22:00,17.2,5.3,30.06,West,270,3.1,5.6,59,0.00,,,0.00,WUHU21623XXSP,2013-01-26 15:22:00,
2013-01-26 10:25:00,17.2,5.3,30.06,West,270,3.8,5.6,59,0.00,,,0.00,WUHU21623XXSP,2013-01-26 15:25:00,
2013-01-26 10:26:00,17.2,5.3,30.06,West,270,3.8,5.6,59,0.00,,,0.00,WUHU21623XXSP,2013-01-26 15:26:00,
2013-01-26 10:27:00,17.4,5.5,30.06,NW,315,1.3,5.6,59,0.00,,,0.00,WUHU21623XXSP,2013-01-26 15:27:00,
2013-01-26 10:30:00,17.4,5.5,30.06,NW,315,1.3,4.9,59,0.00,,,0.00,WUHU21623XXSP,2013-01-26 15:30:00,
2013-01-26 10:31:00,17.4,5.5,30.06,NW,315,1.3,4.9,59,0.00,,,0.00,WUHU21623XXSP,2013-01-26 15:31:00,
2013-01-26 10:32:00,17.4,5.5,30.06,NW,315,1.3,4.9,59,0.00,,,0.00,WUHU21623XXSP,2013-01-26 15:32:00,
2013-01-26 10:35:00,17.8,5.4,30.05,NNW,337,0.0,2.7,58,0.00,,,0.00,WUHU21623XXSP,2013-01-26 15:35:00,
2013-01-26 10:36:00,17.8,5.4,30.05,NNW,337,0.0,2.7,58,0.00,,,0.00,WUHU21623XXSP,2013-01-26 15:36:00,
2013-01-26 10:37:00,17.8,5.4,30.05,NNW,337,0.0,2.7,58,0.00,,,0.00,WUHU21623XXSP,2013-01-26 15:37:00,
2013-01-26 10:40:00,18.0,5.6,30.05,WNW,292,2.0,2.7,58,0.00,,,0.00,WUHU21623XXSP,2013-01-26 15:40:00,
2013-01-26 10:41:00,18.0,5.6,30.05,WNW,292,2.0,2.7,58,0.00,,,0.00,WUHU21623XXSP,2013-01-26 15:41:00,
2013-01-26 10:42:00,18.0,5.6,30.05,NNE,22,2.9,2.9,58,0.00,,,0.00,WUHU21623XXSP,2013-01-26 15:42:00,
2013-01-26 10:45:00,18.1,5.8,30.05,North,0,3.6,3.6,58,0.00,,,0.00,WUHU21623XXSP,2013-01-26 15:45:00,
2013-01-26 10:46:00,18.1,5.8,30.05,NNW,337,0.0,3.6,58,0.00,,,0.00,WUHU21623XXSP,2013-01-26 15:46:00,
2013-01-26 10:47:00,18.1,5.8,30.05,NNW,337,0.0,3.6,58,0.00,,,0.00,WUHU21623XXSP,2013-01-26 15:47:00,
2013-01-26 10:50:00,18.3,5.9,30.05,West,270,2.9,3.6,58,0.00,,,0.00,WUHU21623XXSP,2013-01-26 15:50:00,
2013-01-26 10:51:00,18.3,5.9,30.05,West,270,2.9,3.6,58,0.00,,,0.00,WUHU21623XXSP,2013-01-26 15:51:00,
2013-01-26 10:52:00,18.3,5.9,30.05,West,270,2.9,3.6,58,0.00,,,0.00,WUHU21623XXSP,2013-01-26 15:52:00,
2013-01-26 10:56:00,18.7,6.3,30.05,NW,315,6.9,6.9,58,0.00,,,0.00,WUHU21623XXSP,2013-01-26 15:56:00,
2013-01-26 10:57:00,18.7,5.9,30.05,WSW,247,3.1,6.9,57,0.00,,,0.00,WUHU21623XXSP,2013-01-26 15:57:00,
2013-01-26 11:01:00,18.9,6.0,30.05,WNW,292,2.0,6.9,57,0.00,,,0.00,WUHU21623XXSP,2013-01-26 16:01:00,
2013-01-26 11:02:00,18.9,6.0,30.05,West,270,2.9,6.9,57,0.00,,,0.00,WUHU21623XXSP,2013-01-26 16:02:00,
2013-01-26 11:06:00,19.2,6.3,30.05,WNW,292,0.0,4.5,57,0.00,,,0.00,WUHU21623XXSP,2013-01-26 16:06:00,
2013-01-26 11:07:00,19.2,6.3,30.05,WNW,292,0.0,4.5,57,0.00,,,0.00,WUHU21623XXSP,2013-01-26 16:07:00,
2013-01-26 11:11:00,19.6,6.7,30.05,North,0,0.0,4.5,57,0.00,,,0.00,WUHU21623XXSP,2013-01-26 16:11:00,
2013-01-26 11:12:00,19.6,6.7,30.05,North,0,0.0,4.5,57,0.00,,,0.00,WUHU21623XXSP,2013-01-26 16:12:00,
2013-01-26 11:13:00,19.6,6.7,30.05,North,0,0.0,4.5,57,0.00,,,0.00,WUHU21623XXSP,2013-01-26 16:13:00,
2013-01-26 11:16:00,19.8,6.5,30.05,NNW,337,0.0,3.8,56,0.00,,,0.00,WUHU21623XXSP,2013-01-26 16:16:00,
2013-01-26 11:17:00,19.8,6.5,30.05,NNW,337,0.0,3.8,56,0.00,,,0.00,WUHU21623XXSP,2013-01-26 16:17:00,
2013-01-26 11:18:00,19.8,6.5,30.05,NNW,337,0.0,3.8,56,0.00,,,0.00,WUHU21623XXSP,2013-01-26 16:18:00,
2013-01-26 11:21:00,20.1,6.8,30.05,NNW,337,2.0,3.8,56,0.00,,,0.00,WUHU21623XXSP,2013-01-26 16:21:00,
2013-01-26 11:22:00,20.1,6.8,30.05,NNW,337,2.0,3.8,56,0.00,,,0.00,WUHU21623XXSP,2013-01-26 16:22:00,
2013-01-26 11:23:00,20.1,6.8,30.04,WNW,292,2.0,3.8,56,0.00,,,0.00,WUHU21623XXSP,2013-01-26 16:23:00,
2013-01-26 11:27:00,20.5,7.1,30.04,NE,45,0.7,2.5,56,0.00,,,0.00,WUHU21623XXSP,2013-01-26 16:27:00,
2013-01-26 11:28:00,20.5,7.1,30.04,NE,45,0.7,2.5,56,0.00,,,0.00,WUHU21623XXSP,2013-01-26 16:28:00,
2013-01-26 11:32:00,20.8,7.1,30.04,ENE,67,0.0,2.5,55,0.00,,,0.00,WUHU21623XXSP,2013-01-26 16:32:00,
2013-01-26 11:33:00,20.8,7.1,30.04,ENE,67,0.0,2.5,55,0.00,,,0.00,WUHU21623XXSP,2013-01-26 16:33:00,
2013-01-26 11:34:00,21.0,7.3,30.04,NNW,337,3.4,3.4,55,0.00,,,0.00,WUHU21623XXSP,2013-01-26 16:34:00,
2013-01-26 11:37:00,21.0,7.3,30.04,NNE,22,2.7,3.4,55,0.00,,,0.00,WUHU21623XXSP,2013-01-26 16:37:00,
2013-01-26 11:38:00,21.2,7.4,30.04,NNW,337,4.5,4.5,55,0.00,,,0.00,WUHU21623XXSP,2013-01-26 16:38:00,
2013-01-26 11:39:00,21.2,7.4,30.04,NNW,337,4.5,4.5,55,0.00,,,0.00,WUHU21623XXSP,2013-01-26 16:39:00,
2013-01-26 11:42:00,21.4,7.2,30.04,NNW,337,0.0,4.5,54,0.00,,,0.00,WUHU21623XXSP,2013-01-26 16:42:00,
2013-01-26 11:43:00,21.4,7.2,30.04,NNW,337,0.0,4.5,54,0.00,,,0.00,WUHU21623XXSP,2013-01-26 16:43:00,
2013-01-26 11:45:00,21.7,7.5,30.03,West,270,0.0,4.5,54,0.00,,,0.00,WUHU21623XXSP,2013-01-26 16:45:00,
2013-01-26 11:47:00,21.9,7.7,30.04,West,270,9.2,9.2,54,0.00,,,0.00,WUHU21623XXSP,2013-01-26 16:47:00,
2013-01-26 11:48:00,21.9,7.7,30.04,West,270,9.2,9.2,54,0.00,,,0.00,WUHU21623XXSP,2013-01-26 16:48:00,
2013-01-26 11:50:00,21.9,7.7,30.03,WNW,292,3.1,9.2,54,0.00,,,0.00,WUHU21623XXSP,2013-01-26 16:50:00,
2013-01-26 11:52:00,21.9,7.7,30.03,NW,315,2.0,9.2,54,0.00,,,0.00,WUHU21623XXSP,2013-01-26 16:52:00,
2013-01-26 11:53:00,21.9,7.7,30.03,NW,315,2.0,9.2,54,0.00,,,0.00,WUHU21623XXSP,2013-01-26 16:53:00,
2013-01-26 11:54:00,21.9,7.7,30.03,NW,315,2.0,9.2,54,0.00,,,0.00,WUHU21623XXSP,2013-01-26 16:54:00,
2013-01-26 11:56:00,21.9,7.3,30.03,North,0,3.8,9.2,53,0.00,,,0.00,WUHU21623XXSP,2013-01-26 16:56:00,
2013-01-26 11:58:00,22.1,7.5,30.03,West,270,3.1,3.8,53,0.00,,,0.00,WUHU21623XXSP,2013-01-26 16:58:00,
2013-01-26 12:00:00,22.1,7.5,30.03,WNW,292,3.4,3.8,53,0.00,,,0.00,WUHU21623XXSP,2013-01-26 17:00:00,
2013-01-26 12:01:00,22.1,7.5,30.03,WNW,292,3.4,3.8,53,0.00,,,0.00,WUHU21623XXSP,2013-01-26 17:01:00,
2013-01-26 12:03:00,22.3,7.6,30.03,North,0,2.0,3.8,53,0.00,,,0.00,WUHU21623XXSP,2013-01-26 17:03:00,
2013-01-26 12:06:00,22.5,7.8,30.02,North,0,2.0,3.4,53,0.00,,,0.00,WUHU21623XXSP,2013-01-26 17:06:00,
2013-01-26 12:08:00,22.6,8.0,30.03,North,0,1.1,3.4,53,0.00,,,0.00,WUHU21623XXSP,2013-01-26 17:08:00,
2013-01-26 12:11:00,22.8,8.2,30.03,North,0,0.9,2.0,53,0.00,,,0.00,WUHU21623XXSP,2013-01-26 17:11:00,
2013-01-26 12:13:00,22.8,8.2,30.03,West,270,3.8,3.8,53,0.00,,,0.00,WUHU21623XXSP,2013-01-26 17:13:00,
2013-01-26 12:16:00,22.8,7.8,30.03,West,270,2.5,3.8,52,0.00,,,0.00,WUHU21623XXSP,2013-01-26 17:16:00,
2013-01-26 12:18:00,22.8,7.8,30.03,NNW,337,1.3,3.8,52,0.00,,,0.00,WUHU21623XXSP,2013-01-26 17:18:00,
2013-01-26 12:21:00,22.8,7.8,30.03,NNW,337,1.3,3.8,52,0.00,,,0.00,WUHU21623XXSP,2013-01-26 17:21:00,
2013-01-26 12:23:00,22.8,7.8,30.03,NNW,337,1.3,2.5,52,0.00,,,0.00,WUHU21623XXSP,2013-01-26 17:23:00,
2013-01-26 12:26:00,22.8,7.8,30.03,WSW,247,2.9,2.9,52,0.00,,,0.00,WUHU21623XXSP,2013-01-26 17:26:00,
2013-01-26 12:28:00,22.8,7.8,30.03,NNE,22,0.0,2.9,52,0.00,,,0.00,WUHU21623XXSP,2013-01-26 17:28:00,
2013-01-26 12:29:00,22.8,7.8,30.03,NE,45,2.0,2.9,52,0.00,,,0.00,WUHU21623XXSP,2013-01-26 17:29:00,
2013-01-26 12:31:00,23.0,7.6,30.02,WNW,292,1.6,2.9,51,0.00,,,0.00,WUHU21623XXSP,2013-01-26 17:31:00,
2013-01-26 12:34:00,23.2,7.7,30.02,NNE,22,0.0,2.9,51,0.00,,,0.00,WUHU21623XXSP,2013-01-26 17:34:00,
2013-01-26 12:37:00,23.2,7.7,30.02,NNE,22,0.0,2.0,51,0.00,,,0.00,WUHU21623XXSP,2013-01-26 17:37:00,
2013-01-26 12:39:00,23.2,7.7,30.02,North,0,0.0,1.6,51,0.00,,,0.00,WUHU21623XXSP,2013-01-26 17:39:00,
2013-01-26 12:42:00,23.2,7.7,30.02,West,270,2.0,2.0,51,0.00,,,0.00,WUHU21623XXSP,2013-01-26 17:42:00,
2013-01-26 12:44:00,23.2,7.3,30.02,North,0,0.9,2.0,50,0.00,,,0.00,WUHU21623XXSP,2013-01-26 17:44:00,
2013-01-26 12:47:00,23.2,7.7,30.02,NW,315,3.8,3.8,51,0.00,,,0.00,WUHU21623XXSP,2013-01-26 17:47:00,
2013-01-26 12:49:00,23.4,7.5,30.02,SW,225,12.1,12.1,50,0.00,,,0.00,WUHU21623XXSP,2013-01-26 17:49:00,
2013-01-26 12:52:00,23.5,7.2,30.02,WNW,292,8.5,12.1,49,0.00,,,0.00,WUHU21623XXSP,2013-01-26 17:52:00,
2013-01-26 12:54:00,23.5,7.2,30.02,WNW,292,8.5,12.1,49,0.00,,,0.00,WUHU21623XXSP,2013-01-26 17:54:00,
2013-01-26 12:55:00,23.5,7.6,30.02,NW,315,0.9,12.1,50,0.00,,,0.00,WUHU21623XXSP,2013-01-26 17:55:00,
2013-01-26 12:57:00,23.5,7.6,30.02,West,270,3.1,12.1,50,0.00,,,0.00,WUHU21623XXSP,2013-01-26 17:57:00,
2013-01-26 12:58:00,23.5,7.6,30.02,West,270,3.1,12.1,50,0.00,,,0.00,WUHU21623XXSP,2013-01-26 17:58:00,
2013-01-26 12:59:00,23.7,7.3,30.02,North,0,0.0,8.5,49,0.00,,,0.00,WUHU21623XXSP,2013-01-26 17:59:00,
2013-01-26 13:00:00,23.7,7.3,30.02,North,0,0.0,8.5,49,0.00,,,0.00,WUHU21623XXSP,2013-01-26 18:00:00,
2013-01-26 13:02:00,23.9,7.5,30.02,West,270,7.2,7.2,49,0.00,,,0.00,WUHU21623XXSP,2013-01-26 18:02:00,
2013-01-26 13:03:00,23.9,7.5,30.02,West,270,7.2,7.2,49,0.00,,,0.00,WUHU21623XXSP,2013-01-26 18:03:00,
2013-01-26 13:04:00,23.9,7.0,30.02,West,270,2.0,7.2,48,0.00,,,0.00,WUHU21623XXSP,2013-01-26 18:04:00,
2013-01-26 13:05:00,23.9,7.0,30.02,WNW,292,4.3,7.2,48,0.00,,,0.00,WUHU21623XXSP,2013-01-26 18:05:00,
2013-01-26 13:08:00,23.9,7.0,30.02,WNW,292,4.3,7.2,47,0.00,,,0.00,WUHU21623XXSP,2013-01-26 18:08:00,
2013-01-26 13:09:00,23.9,6.5,30.02,WNW,292,4.3,7.2,47,0.00,,,0.00,WUHU21623XXSP,2013-01-26 18:09:00,
2013-01-26 13:11:00,23.9,6.5,30.02,WNW,292,4.3,7.2,47,0.00,,,0.00,WUHU21623XXSP,2013-01-26 18:11:00,
2013-01-26 13:13:00,23.9,6.5,30.02,WNW,292,4.3,4.3,47,0.00,,,0.00,WUHU21623XXSP,2013-01-26 18:13:00,
2013-01-26 13:14:00,24.1,6.7,30.02,ENE,67,0.0,4.3,47,0.00,,,0.00,WUHU21623XXSP,2013-01-26 18:14:00,
2013-01-26 13:16:00,24.1,6.7,30.02,ENE,67,0.0,4.3,47,0.00,,,0.00,WUHU21623XXSP,2013-01-26 18:16:00,
2013-01-26 13:18:00,24.1,6.2,30.02,West,270,5.4,5.4,46,0.00,,,0.00,WUHU21623XXSP,2013-01-26 18:18:00,
2013-01-26 13:19:00,24.3,6.2,30.02,West,270,5.4,5.4,46,0.00,,,0.00,WUHU21623XXSP,2013-01-26 18:19:00,
2013-01-26 13:21:00,24.3,6.3,30.01,West,270,5.4,5.4,46,0.00,,,0.00,WUHU21623XXSP,2013-01-26 18:21:00,
2013-01-26 13:23:00,24.4,6.5,30.01,West,270,1.3,5.4,46,0.00,,,0.00,WUHU21623XXSP,2013-01-26 18:23:00,
2013-01-26 13:24:00,24.6,6.7,30.01,NNE,22,0.0,5.4,46,0.00,,,0.00,WUHU21623XXSP,2013-01-26 18:24:00,
2013-01-26 13:26:00,24.6,6.7,30.01,NNE,22,0.0,5.4,46,0.00,,,0.00,WUHU21623XXSP,2013-01-26 18:26:00,
2013-01-26 13:28:00,24.6,6.2,30.01,NW,315,8.3,8.3,45,0.00,,,0.00,WUHU21623XXSP,2013-01-26 18:28:00,
2013-01-26 13:29:00,24.6,6.2,30.01,NW,315,2.0,8.3,45,0.00,,,0.00,WUHU21623XXSP,2013-01-26 18:29:00,
2013-01-26 13:31:00,24.8,6.2,30.01,NW,315,2.0,8.3,45,0.00,,,0.00,WUHU21623XXSP,2013-01-26 18:31:00,
2013-01-26 13:33:00,24.8,6.2,30.01,NW,315,2.0,8.3,45,0.00,,,0.00,WUHU21623XXSP,2013-01-26 18:33:00,
2013-01-26 13:34:00,25.0,6.0,30.01,WNW,292,5.1,8.3,44,0.00,,,0.00,WUHU21623XXSP,2013-01-26 18:34:00,
2013-01-26 13:35:00,25.0,6.0,30.01,WNW,292,5.1,8.3,44,0.00,,,0.00,WUHU21623XXSP,2013-01-26 18:35:00,
2013-01-26 13:36:00,25.0,6.0,30.01,WNW,292,5.1,8.3,44,0.00,,,0.00,WUHU21623XXSP,2013-01-26 18:36:00,
2013-01-26 13:38:00,25.0,6.0,30.01,West,270,1.3,5.1,44,0.00,,,0.00,WUHU21623XXSP,2013-01-26 18:38:00,
2013-01-26 13:39:00,25.0,6.0,30.01,West,270,1.3,5.1,44,0.00,,,0.00,WUHU21623XXSP,2013-01-26 18:39:00,
2013-01-26 13:40:00,25.0,6.0,30.01,West,270,1.3,5.1,44,0.00,,,0.00,WUHU21623XXSP,2013-01-26 18:40:00,
2013-01-26 13:41:00,25.2,5.7,30.01,NNW,337,6.3,6.3,43,0.00,,,0.00,WUHU21623XXSP,2013-01-26 18:41:00,
2013-01-26 13:43:00,25.2,5.7,30.01,NNW,337,6.3,6.3,43,0.00,,,0.00,WUHU21623XXSP,2013-01-26 18:43:00,
2013-01-26 13:44:00,25.2,5.2,30.01,West,270,2.5,6.3,42,0.00,,,0.00,WUHU21623XXSP,2013-01-26 18:44:00,
2013-01-26 13:45:00,25.2,5.2,30.01,West,270,2.5,6.3,42,0.00,,,0.00,WUHU21623XXSP,2013-01-26 18:45:00,
2013-01-26 13:46:00,25.0,5.2,30.01,West,270,2.5,6.3,42,0.00,,,0.00,WUHU21623XXSP,2013-01-26 18:46:00,
2013-01-26 13:48:00,25.0,5.2,30.01,West,270,2.5,6.3,42,0.00,,,0.00,WUHU21623XXSP,2013-01-26 18:48:00,
2013-01-26 13:49:00,25.0,5.1,30.02,West,270,1.6,6.3,42,0.00,,,0.00,WUHU21623XXSP,2013-01-26 18:49:00,
2013-01-26 13:50:00,25.0,5.1,30.01,NNW,337,2.7,6.3,42,0.00,,,0.00,WUHU21623XXSP,2013-01-26 18:50:00,
2013-01-26 13:52:00,25.0,5.1,30.01,NNW,337,2.7,2.7,42,0.00,,,0.00,WUHU21623XXSP,2013-01-26 18:52:00,
2013-01-26 13:53:00,25.2,5.2,30.01,NW,315,4.5,4.5,42,0.00,,,0.00,WUHU21623XXSP,2013-01-26 18:53:00,
2013-01-26 13:54:00,25.2,5.2,30.01,NW,315,4.5,4.5,42,0.00,,,0.00,WUHU21623XXSP,2013-01-26 18:54:00,
2013-01-26 13:55:00,25.0,5.2,30.02,NW,315,4.5,4.5,41,0.00,,,0.00,WUHU21623XXSP,2013-01-26 18:55:00,
2013-01-26 13:57:00,25.0,4.6,30.02,North,0,0.0,4.5,41,0.00,,,0.00,WUHU21623XXSP,2013-01-26 18:57:00,
2013-01-26 13:58:00,25.0,4.6,30.02,North,0,0.0,4.5,41,0.00,,,0.00,WUHU21623XXSP,2013-01-26 18:58:00,
2013-01-26 13:59:00,24.8,4.4,30.02,West,270,2.0,4.5,41,0.00,,,0.00,WUHU21623XXSP,2013-01-26 18:59:00,
2013-01-26 14:00:00,24.8,4.4,30.02,West,270,2.0,4.5,41,0.00,,,0.00,WUHU21623XXSP,2013-01-26 19:00:00,
2013-01-26 14:02:00,24.6,4.2,30.02,West,270,8.1,8.1,41,0.00,,,0.00,WUHU21623XXSP,2013-01-26 19:02:00,
2013-01-26 14:03:00,24.6,3.8,30.02,ENE,67,4.7,8.1,40,0.00,,,0.00,WUHU21623XXSP,2013-01-26 19:03:00,
2013-01-26 14:04:00,24.6,3.8,30.02,ENE,67,4.7,8.1,40,0.00,,,0.00,WUHU21623XXSP,2013-01-26 19:04:00,
2013-01-26 14:05:00,24.6,3.8,30.02,WNW,292,4.3,8.1,40,0.00,,,0.00,WUHU21623XXSP,2013-01-26 19:05:00,
2013-01-26 14:07:00,24.6,3.8,30.02,WNW,292,4.3,8.1,40,0.00,,,0.00,WUHU21623XXSP,2013-01-26 19:07:00,
2013-01-26 14:08:00,24.6,4.2,30.02,West,270,5.8,8.1,41,0.00,,,0.00,WUHU21623XXSP,2013-01-26 19:08:00,
2013-01-26 14:09:00,24.6,3.8,30.02,SW,225,1.3,8.1,40,0.00,,,0.00,WUHU21623XXSP,2013-01-26 19:09:00,
2013-01-26 14:10:00,24.6,3.8,30.02,SW,225,1.3,8.1,40,0.00,,,0.00,WUHU21623XXSP,2013-01-26 19:10:00,
2013-01-26 14:12:00,24.6,3.8,30.02,WNW,292,5.8,5.8,40,0.00,,,0.00,WUHU21623XXSP,2013-01-26 19:12:00,
2013-01-26 14:13:00,24.6,3.8,30.02,WNW,292,5.8,5.8,40,0.00,,,0.00,WUHU21623XXSP,2013-01-26 19:13:00,
2013-01-26 14:15:00,24.4,3.6,30.02,WNW,292,3.6,5.8,40,0.00,,,0.00,WUHU21623XXSP,2013-01-26 19:15:00,
2013-01-26 14:16:00,24.4,3.6,30.02,West,270,3.8,5.8,40,0.00,,,0.00,WUHU21623XXSP,2013-01-26 19:16:00,
2013-01-26 14:17:00,24.4,3.6,30.02,West,270,3.8,5.8,40,0.00,,,0.00,WUHU21623XXSP,2013-01-26 19:17:00,
2013-01-26 14:18:00,24.4,3.6,30.02,WNW,292,8.1,8.1,40,0.00,,,0.00,WUHU21623XXSP,2013-01-26 19:18:00,
2013-01-26 14:20:00,24.4,3.6,30.02,WNW,292,8.1,8.1,40,0.00,,,0.00,WUHU21623XXSP,2013-01-26 19:20:00,
2013-01-26 14:21:00,24.4,3.6,30.02,North,0,1.6,8.1,40,0.00,,,0.00,WUHU21623XXSP,2013-01-26 19:21:00,
2013-01-26 14:22:00,24.4,3.6,30.02,ENE,67,2.0,8.1,40,0.00,,,0.00,WUHU21623XXSP,2013-01-26 19:22:00,
2013-01-26 14:24:00,24.4,3.6,30.02,ENE,67,2.0,8.1,40,0.00,,,0.00,WUHU21623XXSP,2013-01-26 19:24:00,
2013-01-26 14:25:00,24.4,3.0,30.02,NW,315,8.9,8.9,39,0.00,,,0.00,WUHU21623XXSP,2013-01-26 19:25:00,
2013-01-26 14:26:00,24.4,3.0,30.02,NW,315,8.9,8.9,39,0.00,,,0.00,WUHU21623XXSP,2013-01-26 19:26:00,
2013-01-26 14:27:00,24.4,3.0,30.02,NNE,22,2.7,8.9,39,0.00,,,0.00,WUHU21623XXSP,2013-01-26 19:27:00,
2013-01-26 14:29:00,24.4,3.0,30.02,NNE,22,2.7,8.9,39,0.00,,,0.00,WUHU21623XXSP,2013-01-26 19:29:00,
2013-01-26 14:30:00,24.4,3.0,30.03,NE,45,1.1,8.9,39,0.00,,,0.00,WUHU21623XXSP,2013-01-26 19:30:00,
2013-01-26 14:31:00,24.4,3.0,30.03,NE,45,1.1,8.9,39,0.00,,,0.00,WUHU21623XXSP,2013-01-26 19:31:00,
2013-01-26 14:33:00,24.4,3.0,30.03,NE,45,1.1,8.9,39,0.00,,,0.00,WUHU21623XXSP,2013-01-26 19:33:00,
2013-01-26 14:34:00,24.4,3.0,30.03,WNW,292,4.5,8.9,39,0.00,,,0.00,WUHU21623XXSP,2013-01-26 19:34:00,
2013-01-26 14:35:00,24.1,2.7,30.03,West,270,3.1,4.5,39,0.00,,,0.00,WUHU21623XXSP,2013-01-26 19:35:00,
2013-01-26 14:37:00,24.1,2.7,30.03,West,270,3.1,4.5,39,0.00,,,0.00,WUHU21623XXSP,2013-01-26 19:37:00,
2013-01-26 14:38:00,24.1,2.7,30.04,North,0,2.0,4.5,39,0.00,,,0.00,WUHU21623XXSP,2013-01-26 19:38:00,
2013-01-26 14:39:00,24.1,2.7,30.04,North,0,2.0,4.5,39,0.00,,,0.00,WUHU21623XXSP,2013-01-26 19:39:00,
2013-01-26 14:40:00,24.1,2.7,30.03,NNE,22,6.7,6.7,39,0.00,,,0.00,WUHU21623XXSP,2013-01-26 19:40:00,
2013-01-26 14:42:00,24.1,2.7,30.04,North,0,3.1,6.7,39,0.00,,,0.00,WUHU21623XXSP,2013-01-26 19:42:00,
2013-01-26 14:43:00,24.1,2.7,30.04,North,0,3.1,6.7,39,0.00,,,0.00,WUHU21623XXSP,2013-01-26 19:43:00,
2013-01-26 14:44:00,24.1,2.7,30.04,WNW,292,8.9,8.9,39,0.00,,,0.00,WUHU21623XXSP,2013-01-26 19:44:00,
2013-01-26 14:45:00,24.1,2.7,30.04,WNW,292,8.9,8.9,39,0.00,,,0.00,WUHU21623XXSP,2013-01-26 19:45:00,
2013-01-26 14:47:00,24.1,2.7,30.03,WNW,292,8.9,8.9,39,0.00,,,0.00,WUHU21623XXSP,2013-01-26 19:47:00,
2013-01-26 14:48:00,24.1,2.7,30.03,NW,315,5.4,8.9,39,0.00,,,0.00,WUHU21623XXSP,2013-01-26 19:48:00,
2013-01-26 14:49:00,24.1,2.7,30.03,NW,315,5.4,8.9,39,0.00,,,0.00,WUHU21623XXSP,2013-01-26 19:49:00,
2013-01-26 14:50:00,24.1,2.0,30.03,West,270,6.3,8.9,38,0.00,,,0.00,WUHU21623XXSP,2013-01-26 19:50:00,
2013-01-26 14:52:00,24.1,2.0,30.03,West,270,6.3,8.9,38,0.00,,,0.00,WUHU21623XXSP,2013-01-26 19:52:00,
2013-01-26 14:53:00,24.1,2.7,30.03,NNE,22,3.6,8.9,39,0.00,,,0.00,WUHU21623XXSP,2013-01-26 19:53:00,
2013-01-26 14:54:00,24.1,2.7,30.03,NNE,22,3.6,8.9,39,0.00,,,0.00,WUHU21623XXSP,2013-01-26 19:54:00,
2013-01-26 14:55:00,23.9,2.5,30.03,WNW,292,0.0,8.9,39,0.00,,,0.00,WUHU21623XXSP,2013-01-26 19:55:00,
2013-01-26 14:58:00,23.9,2.5,30.03,NE,45,2.0,6.3,39,0.00,,,0.00,WUHU21623XXSP,2013-01-26 19:58:00,
2013-01-26 14:59:00,23.9,2.5,30.03,North,0,0.9,6.3,39,0.00,,,0.00,WUHU21623XXSP,2013-01-26 19:59:00,
2013-01-26 15:00:00,23.9,2.5,30.03,North,0,0.9,3.6,39,0.00,,,0.00,WUHU21623XXSP,2013-01-26 20:00:00,
2013-01-26 15:03:00,23.9,2.5,30.03,North,0,0.9,2.0,39,0.00,,,0.00,WUHU21623XXSP,2013-01-26 20:03:00,
2013-01-26 15:04:00,23.9,2.5,30.04,North,0,0.9,2.0,39,0.00,,,0.00,WUHU21623XXSP,2013-01-26 20:04:00,
2013-01-26 15:06:00,23.9,2.5,30.04,North,0,0.9,2.0,39,0.00,,,0.00,WUHU21623XXSP,2013-01-26 20:06:00,
2013-01-26 15:08:00,23.7,2.3,30.04,West,270,1.3,1.3,39,0.00,,,0.00,WUHU21623XXSP,2013-01-26 20:08:00,
2013-01-26 15:09:00,23.7,2.3,30.04,West,270,1.3,1.3,39,0.00,,,0.00,WUHU21623XXSP,2013-01-26 20:09:00,
2013-01-26 15:11:00,23.7,2.3,30.04,West,270,1.3,1.3,39,0.00,,,0.00,WUHU21623XXSP,2013-01-26 20:11:00,
2013-01-26 15:13:00,23.7,2.3,30.04,WNW,292,0.0,1.3,39,0.00,,,0.00,WUHU21623XXSP,2013-01-26 20:13:00,
2013-01-26 15:14:00,23.7,2.3,30.04,NW,315,2.7,2.7,39,0.00,,,0.00,WUHU21623XXSP,2013-01-26 20:14:00,
2013-01-26 15:16:00,23.7,2.3,30.04,NW,315,2.7,2.7,39,0.00,,,0.00,WUHU21623XXSP,2013-01-26 20:16:00,
2013-01-26 15:18:00,23.7,2.3,30.04,NW,315,2.7,2.7,39,0.00,,,0.00,WUHU21623XXSP,2013-01-26 20:18:00,
2013-01-26 15:19:00,23.7,2.3,30.04,NW,315,2.2,2.7,39,0.00,,,0.00,WUHU21623XXSP,2013-01-26 20:19:00,
2013-01-26 15:21:00,23.9,2.3,30.05,NW,315,2.2,2.7,39,0.00,,,0.00,WUHU21623XXSP,2013-01-26 20:21:00,
2013-01-26 15:23:00,23.9,2.5,30.05,NW,315,2.2,2.7,39,0.00,,,0.00,WUHU21623XXSP,2013-01-26 20:23:00,
2013-01-26 15:24:00,23.9,2.5,30.05,NW,315,2.2,2.7,39,0.00,,,0.00,WUHU21623XXSP,2013-01-26 20:24:00,
2013-01-26 15:26:00,23.9,2.5,30.05,North,0,1.8,2.2,39,0.00,,,0.00,WUHU21623XXSP,2013-01-26 20:26:00,
2013-01-26 15:28:00,23.9,2.5,30.05,North,0,1.8,2.2,39,0.00,,,0.00,WUHU21623XXSP,2013-01-26 20:28:00,
2013-01-26 15:29:00,23.9,2.5,30.05,North,0,1.8,2.2,39,0.00,,,0.00,WUHU21623XXSP,2013-01-26 20:29:00,
2013-01-26 15:31:00,23.9,2.5,30.05,West,270,6.0,6.0,39,0.00,,,0.00,WUHU21623XXSP,2013-01-26 20:31:00,
2013-01-26 15:33:00,23.9,2.5,30.05,North,0,0.0,6.0,39,0.00,,,0.00,WUHU21623XXSP,2013-01-26 20:33:00,
2013-01-26 15:34:00,23.9,2.5,30.05,North,0,0.0,6.0,39,0.00,,,0.00,WUHU21623XXSP,2013-01-26 20:34:00,
2013-01-26 15:35:00,23.9,2.5,30.05,North,0,0.0,6.0,39,0.00,,,0.00,WUHU21623XXSP,2013-01-26 20:35:00,
2013-01-26 15:36:00,23.9,2.5,30.05,NNE,22,3.6,6.0,39,0.00,,,0.00,WUHU21623XXSP,2013-01-26 20:36:00,
2013-01-26 15:38:00,23.7,2.5,30.05,NNW,337,4.0,6.0,39,0.00,,,0.00,WUHU21623XXSP,2013-01-26 20:38:00,
2013-01-26 15:39:00,23.7,2.5,30.05,NNW,337,4.0,6.0,39,0.00,,,0.00,WUHU21623XXSP,2013-01-26 20:39:00,
2013-01-26 15:40:00,23.9,2.5,30.05,NW,315,3.1,6.0,39,0.00,,,0.00,WUHU21623XXSP,2013-01-26 20:40:00,
2013-01-26 15:41:00,23.9,2.5,30.05,NW,315,3.1,4.0,39,0.00,,,0.00,WUHU21623XXSP,2013-01-26 20:41:00,
2013-01-26 15:43:00,23.7,2.9,30.06,West,270,5.1,5.1,40,0.00,,,0.00,WUHU21623XXSP,2013-01-26 20:43:00,
2013-01-26 15:44:00,23.9,2.9,30.06,West,270,5.1,5.1,40,0.00,,,0.00,WUHU21623XXSP,2013-01-26 20:44:00,
2013-01-26 15:45:00,23.9,2.9,30.06,West,270,5.1,5.1,40,0.00,,,0.00,WUHU21623XXSP,2013-01-26 20:45:00,
2013-01-26 15:46:00,23.7,2.9,30.06,WNW,292,6.5,6.5,40,0.00,,,0.00,WUHU21623XXSP,2013-01-26 20:46:00,
2013-01-26 15:48:00,23.7,2.9,30.06,North,0,0.0,6.5,40,0.00,,,0.00,WUHU21623XXSP,2013-01-26 20:48:00,
2013-01-26 15:49:00,23.7,2.9,30.06,North,0,0.0,6.5,40,0.00,,,0.00,WUHU21623XXSP,2013-01-26 20:49:00,
2013-01-26 15:50:00,23.7,2.9,30.06,WNW,292,1.1,6.5,40,0.00,,,0.00,WUHU21623XXSP,2013-01-26 20:50:00,
2013-01-26 15:51:00,23.7,2.9,30.06,WNW,292,1.1,6.5,40,0.00,,,0.00,WUHU21623XXSP,2013-01-26 20:51:00,
2013-01-26 15:54:00,23.5,2.8,30.07,West,270,11.9,11.9,40,0.00,,,0.00,WUHU21623XXSP,2013-01-26 20:54:00,
2013-01-26 15:55:00,23.5,2.8,30.06,West,270,11.9,11.9,39,0.00,,,0.00,WUHU21623XXSP,2013-01-26 20:55:00,
2013-01-26 15:56:00,23.5,2.8,30.06,West,270,11.9,11.9,39,0.00,,,0.00,WUHU21623XXSP,2013-01-26 20:56:00,
2013-01-26 15:57:00,23.5,2.2,30.07,West,270,11.9,11.9,39,0.00,,,0.00,WUHU21623XXSP,2013-01-26 20:57:00,
2013-01-26 15:59:00,23.4,2.2,30.07,West,270,11.9,11.9,40,0.00,,,0.00,WUHU21623XXSP,2013-01-26 20:59:00,
2013-01-26 16:00:00,23.4,2.2,30.07,West,270,11.9,11.9,40,0.00,,,0.00,WUHU21623XXSP,2013-01-26 21:00:00,
2013-01-26 16:01:00,23.2,1.8,30.07,West,270,0.7,11.9,39,0.00,,,0.00,WUHU21623XXSP,2013-01-26 21:01:00,
2013-01-26 16:04:00,23.2,1.8,30.07,NNW,337,5.4,11.9,39,0.00,,,0.00,WUHU21623XXSP,2013-01-26 21:04:00,
2013-01-26 16:05:00,23.2,1.8,30.07,NNW,337,5.8,11.9,39,0.00,,,0.00,WUHU21623XXSP,2013-01-26 21:05:00,
2013-01-26 16:06:00,23.2,1.8,30.07,NNW,337,5.8,11.9,39,0.00,,,0.00,WUHU21623XXSP,2013-01-26 21:06:00,
2013-01-26 16:10:00,22.8,1.5,30.07,West,270,1.8,5.8,39,0.00,,,0.00,WUHU21623XXSP,2013-01-26 21:10:00,
2013-01-26 16:11:00,22.8,1.5,30.07,WSW,247,7.4,7.4,39,0.00,,,0.00,WUHU21623XXSP,2013-01-26 21:11:00,
2013-01-26 16:12:00,22.8,1.5,30.07,WSW,247,7.4,7.4,39,0.00,,,0.00,WUHU21623XXSP,2013-01-26 21:12:00,
2013-01-26 16:15:00,22.6,1.5,30.07,WSW,247,7.4,7.4,39,0.00,,,0.00,WUHU21623XXSP,2013-01-26 21:15:00,
2013-01-26 16:16:00,22.6,1.4,30.08,West,270,6.0,7.4,39,0.00,,,0.00,WUHU21623XXSP,2013-01-26 21:16:00,
2013-01-26 16:17:00,22.6,1.4,30.08,West,270,6.0,7.4,39,0.00,,,0.00,WUHU21623XXSP,2013-01-26 21:17:00,
2013-01-26 16:20:00,22.5,1.2,30.08,NE,45,0.0,7.4,39,0.00,,,0.00,WUHU21623XXSP,2013-01-26 21:20:00,
2013-01-26 16:22:00,22.5,1.2,30.08,NE,45,0.0,7.4,39,0.00,,,0.00,WUHU21623XXSP,2013-01-26 21:22:00,
2013-01-26 16:25:00,22.5,0.6,30.08,WNW,292,7.4,7.4,38,0.00,,,0.00,WUHU21623XXSP,2013-01-26 21:25:00,
2013-01-26 16:27:00,22.1,0.3,30.08,WSW,247,4.3,7.4,38,0.00,,,0.00,WUHU21623XXSP,2013-01-26 21:27:00,
2013-01-26 16:31:00,22.1,0.3,30.08,NW,315,3.6,7.4,38,0.00,,,0.00,WUHU21623XXSP,2013-01-26 21:31:00,
2013-01-26 16:32:00,22.1,0.3,30.08,NW,315,3.6,7.4,38,0.00,,,0.00,WUHU21623XXSP,2013-01-26 21:32:00,
2013-01-26 16:36:00,21.9,0.1,30.09,WNW,292,6.3,6.3,38,0.00,,,0.00,WUHU21623XXSP,2013-01-26 21:36:00,
2013-01-26 16:37:00,21.9,0.1,30.09,WNW,292,6.3,6.3,38,0.00,,,0.00,WUHU21623XXSP,2013-01-26 21:37:00,
2013-01-26 16:42:00,21.7,-0.1,30.09,WNW,292,2.9,6.3,38,0.00,,,0.00,WUHU21623XXSP,2013-01-26 21:42:00,
2013-01-26 16:43:00,21.7,-0.1,30.09,WNW,292,2.9,6.3,38,0.00,,,0.00,WUHU21623XXSP,2013-01-26 21:43:00,
2013-01-26 16:47:00,21.7,-0.1,30.09,WNW,292,6.3,6.3,38,0.00,,,0.00,WUHU21623XXSP,2013-01-26 21:47:00,
2013-01-26 16:48:00,21.6,-0.2,30.09,NNW,337,9.2,9.2,38,0.00,,,0.00,WUHU21623XXSP,2013-01-26 21:48:00,
2013-01-26 16:53:00,21.6,-0.2,30.09,NNW,337,2.2,9.2,38,0.00,,,0.00,WUHU21623XXSP,2013-01-26 21:53:00,
2013-01-26 16:54:00,21.6,-0.2,30.09,NNW,337,2.2,9.2,38,0.00,,,0.00,WUHU21623XXSP,2013-01-26 21:54:00,
2013-01-26 16:58:00,21.4,-0.4,30.09,NW,315,4.7,4.7,38,0.00,,,0.00,WUHU21623XXSP,2013-01-26 21:58:00,
2013-01-26 16:59:00,21.4,-0.4,30.09,NW,315,4.7,4.7,38,0.00,,,0.00,WUHU21623XXSP,2013-01-26 21:59:00,
2013-01-26 17:04:00,21.4,-0.4,30.10,NW,315,1.8,4.7,38,0.00,,,0.00,WUHU21623XXSP,2013-01-26 22:04:00,
2013-01-26 17:09:00,21.4,-0.4,30.10,WNW,292,0.0,4.5,38,0.00,,,0.00,WUHU21623XXSP,2013-01-26 22:09:00,
2013-01-26 17:14:00,21.2,-0.5,30.10,WNW,292,2.2,2.2,38,0.00,,,0.00,WUHU21623XXSP,2013-01-26 22:14:00,
2013-01-26 17:19:00,21.0,-0.7,30.11,SE,135,1.8,2.5,38,0.00,,,0.00,WUHU21623XXSP,2013-01-26 22:19:00,
2013-01-26 17:24:00,21.0,-0.7,30.10,WNW,292,4.3,4.3,38,0.00,,,0.00,WUHU21623XXSP,2013-01-26 22:24:00,
2013-01-26 17:29:00,21.0,-0.7,30.10,West,270,5.4,5.4,38,0.00,,,0.00,WUHU21623XXSP,2013-01-26 22:29:00,
2013-01-26 17:30:00,21.0,-0.7,30.10,West,270,5.4,5.4,38,0.00,,,0.00,WUHU21623XXSP,2013-01-26 22:30:00,
2013-01-26 17:34:00,21.0,-0.7,30.10,NW,315,0.0,5.4,38,0.00,,,0.00,WUHU21623XXSP,2013-01-26 22:34:00,
2013-01-26 17:35:00,21.0,-0.7,30.10,NW,315,0.0,5.4,38,0.00,,,0.00,WUHU21623XXSP,2013-01-26 22:35:00,
2013-01-26 17:39:00,21.0,-0.7,30.11,NE,45,0.0,5.4,38,0.00,,,0.00,WUHU21623XXSP,2013-01-26 22:39:00,
2013-01-26 17:40:00,21.0,-0.7,30.11,NE,45,0.0,5.4,38,0.00,,,0.00,WUHU21623XXSP,2013-01-26 22:40:00,
2013-01-26 17:44:00,21.0,-0.7,30.11,NE,45,0.0,2.9,38,0.00,,,0.00,WUHU21623XXSP,2013-01-26 22:44:00,
2013-01-26 17:45:00,21.0,-0.7,30.11,NE,45,0.0,2.9,38,0.00,,,0.00,WUHU21623XXSP,2013-01-26 22:45:00,
2013-01-26 17:49:00,20.8,-0.9,30.11,North,0,2.9,2.9,38,0.00,,,0.00,WUHU21623XXSP,2013-01-26 22:49:00,
2013-01-26 17:50:00,20.8,-0.9,30.11,North,0,2.9,2.9,38,0.00,,,0.00,WUHU21623XXSP,2013-01-26 22:50:00,
2013-01-26 17:54:00,20.8,-0.9,30.12,WNW,292,6.3,7.4,38,0.00,,,0.00,WUHU21623XXSP,2013-01-26 22:54:00,
2013-01-26 17:55:00,20.8,-0.9,30.12,WNW,292,6.3,7.4,38,0.00,,,0.00,WUHU21623XXSP,2013-01-26 22:55:00,
2013-01-26 17:59:00,20.8,-1.5,30.12,NNE,22,3.8,7.4,37,0.00,,,0.00,WUHU21623XXSP,2013-01-26 22:59:00,
2013-01-26 18:00:00,20.8,-1.5,30.12,NNE,22,3.8,7.4,37,0.00,,,0.00,WUHU21623XXSP,2013-01-26 23:00:00,
2013-01-26 18:04:00,20.5,-1.8,30.12,NNE,22,2.9,3.8,37,0.00,,,0.00,WUHU21623XXSP,2013-01-26 23:04:00,
2013-01-26 18:06:00,20.5,-1.2,30.12,NE,45,0.0,3.8,38,0.00,,,0.00,WUHU21623XXSP,2013-01-26 23:06:00,
2013-01-26 18:09:00,20.5,-1.2,30.12,NNE,22,1.1,3.6,38,0.00,,,0.00,WUHU21623XXSP,2013-01-26 23:09:00,
2013-01-26 18:11:00,20.5,-1.2,30.12,NNE,22,1.1,2.9,38,0.00,,,0.00,WUHU21623XXSP,2013-01-26 23:11:00,
2013-01-26 18:14:00,20.5,-1.2,30.12,NW,315,1.3,1.3,38,0.00,,,0.00,WUHU21623XXSP,2013-01-26 23:14:00,
2013-01-26 18:16:00,20.5,-1.2,30.12,WNW,292,5.1,5.1,38,0.00,,,0.00,WUHU21623XXSP,2013-01-26 23:16:00,
2013-01-26 18:20:00,20.5,-1.2,30.12,NE,45,3.1,5.1,38,0.00,,,0.00,WUHU21623XXSP,2013-01-26 23:20:00,
2013-01-26 18:21:00,20.5,-1.2,30.13,NE,45,3.1,5.1,38,0.00,,,0.00,WUHU21623XXSP,2013-01-26 23:21:00,
2013-01-26 18:25:00,20.3,-1.4,30.13,NW,315,2.9,5.1,38,0.00,,,0.00,WUHU21623XXSP,2013-01-26 23:25:00,
2013-01-26 18:26:00,20.3,-1.4,30.13,NW,315,2.9,5.1,38,0.00,,,0.00,WUHU21623XXSP,2013-01-26 23:26:00,
2013-01-26 18:27:00,20.3,-1.4,30.13,NW,315,2.9,5.1,38,0.00,,,0.00,WUHU21623XXSP,2013-01-26 23:27:00,
2013-01-26 18:30:00,20.3,-1.4,30.13,NW,315,2.9,5.1,38,0.00,,,0.00,WUHU21623XXSP,2013-01-26 23:30:00,
2013-01-26 18:31:00,20.3,-1.4,30.13,NW,315,2.5,5.1,38,0.00,,,0.00,WUHU21623XXSP,2013-01-26 23:31:00,
2013-01-26 18:32:00,20.3,-1.4,30.13,NW,315,2.5,5.1,38,0.00,,,0.00,WUHU21623XXSP,2013-01-26 23:32:00,
2013-01-26 18:35:00,20.5,-0.7,30.13,WNW,292,3.6,3.6,39,0.00,,,0.00,WUHU21623XXSP,2013-01-26 23:35:00,
2013-01-26 18:36:00,20.5,-0.7,30.13,WNW,292,3.6,3.6,39,0.00,,,0.00,WUHU21623XXSP,2013-01-26 23:36:00,
2013-01-26 18:37:00,20.5,-0.7,30.13,WNW,292,3.6,3.6,39,0.00,,,0.00,WUHU21623XXSP,2013-01-26 23:37:00,
2013-01-26 18:41:00,20.5,-0.6,30.13,West,270,3.4,3.6,39,0.00,,,0.00,WUHU21623XXSP,2013-01-26 23:41:00,
2013-01-26 18:42:00,20.5,-0.6,30.13,West,270,0.0,3.6,39,0.00,,,0.00,WUHU21623XXSP,2013-01-26 23:42:00,
2013-01-26 18:46:00,20.5,-0.6,30.13,West,270,0.0,3.4,39,0.00,,,0.00,WUHU21623XXSP,2013-01-26 23:46:00,
2013-01-26 18:47:00,20.5,-0.6,30.13,West,270,0.0,3.4,39,0.00,,,0.00,WUHU21623XXSP,2013-01-26 23:47:00,
2013-01-26 18:51:00,20.3,-0.7,30.14,WNW,292,2.5,4.3,39,0.00,,,0.00,WUHU21623XXSP,2013-01-26 23:51:00,
2013-01-26 18:52:00,20.3,-0.7,30.14,WNW,292,2.5,4.3,39,0.00,,,0.00,WUHU21623XXSP,2013-01-26 23:52:00,
2013-01-26 18:56:00,20.3,-0.7,30.14,NW,315,4.9,4.9,39,0.00,,,0.00,WUHU21623XXSP,2013-01-26 23:56:00,
2013-01-26 18:57:00,20.1,-0.7,30.14,NW,315,4.9,4.9,39,0.00,,,0.00,WUHU21623XXSP,2013-01-26 23:57:00,
2013-01-26 19:01:00,20.1,-0.9,30.14,NW,315,2.2,4.9,39,0.00,,,0.00,WUHU21623XXSP,2013-01-27 00:01:00,
2013-01-26 19:02:00,20.1,-0.9,30.14,NW,315,2.2,4.9,39,0.00,,,0.00,WUHU21623XXSP,2013-01-27 00:02:00,
2013-01-26 19:03:00,19.9,-0.9,30.14,WSW,247,2.5,4.9,39,0.00,,,0.00,WUHU21623XXSP,2013-01-27 00:03:00,
2013-01-26 19:06:00,19.9,-1.1,30.15,WSW,247,2.5,4.9,39,0.00,,,0.00,WUHU21623XXSP,2013-01-27 00:06:00,
2013-01-26 19:07:00,19.9,-1.1,30.14,WSW,247,2.5,3.4,39,0.00,,,0.00,WUHU21623XXSP,2013-01-27 00:07:00,
2013-01-26 19:08:00,19.9,-1.1,30.14,WSW,247,2.5,3.4,39,0.00,,,0.00,WUHU21623XXSP,2013-01-27 00:08:00,
2013-01-26 19:11:00,19.8,-1.2,30.14,North,0,2.5,2.5,39,0.00,,,0.00,WUHU21623XXSP,2013-01-27 00:11:00,
2013-01-26 19:12:00,19.6,-1.2,30.14,North,0,2.5,2.5,39,0.00,,,0.00,WUHU21623XXSP,2013-01-27 00:12:00,
2013-01-26 19:13:00,19.6,-1.2,30.14,North,0,2.5,2.5,39,0.00,,,0.00,WUHU21623XXSP,2013-01-27 00:13:00,
2013-01-26 19:16:00,19.6,-2.0,30.14,West,270,2.5,2.5,38,0.00,,,0.00,WUHU21623XXSP,2013-01-27 00:16:00,
2013-01-26 19:17:00,19.6,-2.0,30.14,West,270,2.5,2.5,38,0.00,,,0.00,WUHU21623XXSP,2013-01-27 00:17:00,
2013-01-26 19:18:00,19.6,-2.0,30.14,WNW,292,2.0,2.5,38,0.00,,,0.00,WUHU21623XXSP,2013-01-27 00:18:00,
2013-01-26 19:21:00,19.6,-2.0,30.14,WNW,292,2.0,2.5,38,0.00,,,0.00,WUHU21623XXSP,2013-01-27 00:21:00,
2013-01-26 19:22:00,19.4,-2.2,30.14,WSW,247,6.7,6.7,38,0.00,,,0.00,WUHU21623XXSP,2013-01-27 00:22:00,
2013-01-26 19:23:00,19.4,-2.2,30.14,WSW,247,6.7,6.7,38,0.00,,,0.00,WUHU21623XXSP,2013-01-27 00:23:00,
2013-01-26 19:26:00,19.2,-2.3,30.14,NNE,22,8.5,8.5,38,0.00,,,0.00,WUHU21623XXSP,2013-01-27 00:26:00,
2013-01-26 19:28:00,19.2,-2.3,30.14,NNE,22,8.5,8.5,38,0.00,,,0.00,WUHU21623XXSP,2013-01-27 00:28:00,
2013-01-26 19:31:00,19.0,-2.3,30.15,WNW,292,6.3,8.5,38,0.00,,,0.00,WUHU21623XXSP,2013-01-27 00:31:00,
2013-01-26 19:33:00,19.0,-2.5,30.15,WNW,292,6.3,8.5,38,0.00,,,0.00,WUHU21623XXSP,2013-01-27 00:33:00,
2013-01-26 19:37:00,19.0,-2.5,30.15,North,0,2.5,6.3,38,0.00,,,0.00,WUHU21623XXSP,2013-01-27 00:37:00,
2013-01-26 19:38:00,19.0,-2.5,30.15,ENE,67,1.3,6.3,38,0.00,,,0.00,WUHU21623XXSP,2013-01-27 00:38:00,
2013-01-26 19:42:00,18.7,-2.8,30.16,West,270,6.7,6.7,38,0.00,,,0.00,WUHU21623XXSP,2013-01-27 00:42:00,
2013-01-26 19:43:00,18.7,-2.8,30.16,West,270,6.7,6.7,38,0.00,,,0.00,WUHU21623XXSP,2013-01-27 00:43:00,
2013-01-26 19:47:00,18.7,-2.8,30.16,NW,315,3.1,6.7,38,0.00,,,0.00,WUHU21623XXSP,2013-01-27 00:47:00,
2013-01-26 19:48:00,18.5,-3.0,30.17,West,270,10.5,10.5,38,0.00,,,0.00,WUHU21623XXSP,2013-01-27 00:48:00,
2013-01-26 19:49:00,18.5,-3.0,30.17,West,270,10.5,10.5,38,0.00,,,0.00,WUHU21623XXSP,2013-01-27 00:49:00,
2013-01-26 19:52:00,18.5,-3.0,30.16,West,270,2.2,10.5,38,0.00,,,0.00,WUHU21623XXSP,2013-01-27 00:52:00,
2013-01-26 19:53:00,18.5,-3.0,30.17,WSW,247,8.1,10.5,38,0.00,,,0.00,WUHU21623XXSP,2013-01-27 00:53:00,
2013-01-26 19:54:00,18.5,-3.0,30.17,WSW,247,8.1,10.5,38,0.00,,,0.00,WUHU21623XXSP,2013-01-27 00:54:00,
2013-01-26 19:57:00,18.3,-3.1,30.17,NW,315,1.6,10.5,38,0.00,,,0.00,WUHU21623XXSP,2013-01-27 00:57:00,
2013-01-26 19:59:00,18.3,-3.1,30.17,NW,315,4.0,8.1,38,0.00,,,0.00,WUHU21623XXSP,2013-01-27 00:59:00,
2013-01-26 20:02:00,18.3,-3.1,30.16,NW,315,2.9,4.0,38,0.00,,,0.00,WUHU21623XXSP,2013-01-27 01:02:00,
2013-01-26 20:04:00,18.3,-3.1,30.16,West,270,2.7,4.0,38,0.00,,,0.00,WUHU21623XXSP,2013-01-27 01:04:00,
2013-01-26 20:07:00,18.1,-3.3,30.16,NW,315,3.8,4.0,38,0.00,,,0.00,WUHU21623XXSP,2013-01-27 01:07:00,
2013-01-26 20:09:00,18.1,-3.3,30.16,NW,315,3.8,3.8,38,0.00,,,0.00,WUHU21623XXSP,2013-01-27 01:09:00,
2013-01-26 20:12:00,18.1,-2.7,30.17,WNW,292,5.4,5.4,39,0.00,,,0.00,WUHU21623XXSP,2013-01-27 01:12:00,
2013-01-26 20:14:00,18.1,-2.7,30.16,ENE,67,4.5,5.4,39,0.00,,,0.00,WUHU21623XXSP,2013-01-27 01:14:00,
2013-01-26 20:15:00,18.1,-2.7,30.16,ENE,67,4.5,5.4,39,0.00,,,0.00,WUHU21623XXSP,2013-01-27 01:15:00,
2013-01-26 20:17:00,18.0,-2.8,30.16,West,270,8.9,8.9,39,0.00,,,0.00,WUHU21623XXSP,2013-01-27 01:17:00,
2013-01-26 20:19:00,18.0,-2.8,30.17,North,0,1.8,8.9,39,0.00,,,0.00,WUHU21623XXSP,2013-01-27 01:19:00,
2013-01-26 20:20:00,18.0,-2.8,30.17,NNW,337,1.8,8.9,39,0.00,,,0.00,WUHU21623XXSP,2013-01-27 01:20:00,
2013-01-26 20:22:00,17.8,-3.0,30.17,WNW,292,2.0,8.9,39,0.00,,,0.00,WUHU21623XXSP,2013-01-27 01:22:00,
2013-01-26 20:24:00,17.8,-3.0,30.17,NW,315,0.0,8.9,39,0.00,,,0.00,WUHU21623XXSP,2013-01-27 01:24:00,
2013-01-26 20:26:00,17.8,-3.0,30.17,NW,315,0.0,2.0,39,0.00,,,0.00,WUHU21623XXSP,2013-01-27 01:26:00,
2013-01-26 20:28:00,17.8,-2.4,30.17,NW,315,4.7,4.7,40,0.00,,,0.00,WUHU21623XXSP,2013-01-27 01:28:00,
2013-01-26 20:29:00,17.8,-2.4,30.17,NW,315,4.7,4.7,40,0.00,,,0.00,WUHU21623XXSP,2013-01-27 01:29:00,
2013-01-26 20:31:00,17.8,-2.4,30.17,WNW,292,1.8,4.7,40,0.00,,,0.00,WUHU21623XXSP,2013-01-27 01:31:00,
2013-01-26 20:33:00,17.8,-2.4,30.17,NW,315,2.5,4.7,40,0.00,,,0.00,WUHU21623XXSP,2013-01-27 01:33:00,
2013-01-26 20:34:00,17.8,-2.4,30.17,NW,315,2.5,4.7,40,0.00,,,0.00,WUHU21623XXSP,2013-01-27 01:34:00,
2013-01-26 20:35:00,17.8,-2.4,30.17,NW,315,2.5,4.7,40,0.00,,,0.00,WUHU21623XXSP,2013-01-27 01:35:00,
2013-01-26 20:36:00,17.4,-2.7,30.17,West,270,1.3,4.7,40,0.00,,,0.00,WUHU21623XXSP,2013-01-27 01:36:00,
2013-01-26 20:38:00,17.4,-2.7,30.17,West,270,2.7,2.7,40,0.00,,,0.00,WUHU21623XXSP,2013-01-27 01:38:00,
2013-01-26 20:39:00,17.4,-2.7,30.17,North,0,0.0,2.7,40,0.00,,,0.00,WUHU21623XXSP,2013-01-27 01:39:00,
2013-01-26 20:40:00,17.4,-2.7,30.17,North,0,0.0,2.7,40,0.00,,,0.00,WUHU21623XXSP,2013-01-27 01:40:00,
2013-01-26 20:41:00,17.4,-2.7,30.17,WNW,292,6.7,6.7,40,0.00,,,0.00,WUHU21623XXSP,2013-01-27 01:41:00,
2013-01-26 20:44:00,17.4,-2.7,30.17,NNW,337,2.2,6.7,40,0.00,,,0.00,WUHU21623XXSP,2013-01-27 01:44:00,
2013-01-26 20:45:00,17.4,-2.7,30.17,NNW,337,2.2,6.7,40,0.00,,,0.00,WUHU21623XXSP,2013-01-27 01:45:00,
2013-01-26 20:47:00,17.4,-2.7,30.18,WSW,247,2.5,6.7,40,0.00,,,0.00,WUHU21623XXSP,2013-01-27 01:47:00,
2013-01-26 20:49:00,17.4,-2.7,30.18,West,270,2.2,6.7,40,0.00,,,0.00,WUHU21623XXSP,2013-01-27 01:49:00,
2013-01-26 20:50:00,17.4,-2.7,30.17,NNW,337,4.9,6.7,40,0.00,,,0.00,WUHU21623XXSP,2013-01-27 01:50:00,
2013-01-26 20:52:00,17.2,-2.9,30.17,WNW,292,0.0,4.9,40,0.00,,,0.00,WUHU21623XXSP,2013-01-27 01:52:00,
2013-01-26 20:54:00,17.2,-2.9,30.18,NW,315,1.6,4.9,40,0.00,,,0.00,WUHU21623XXSP,2013-01-27 01:54:00,
2013-01-26 20:55:00,17.2,-2.9,30.18,NW,315,1.6,4.9,40,0.00,,,0.00,WUHU21623XXSP,2013-01-27 01:55:00,
2013-01-26 20:57:00,17.2,-2.9,30.18,NNE,22,2.5,4.9,40,0.00,,,0.00,WUHU21623XXSP,2013-01-27 01:57:00,
2013-01-26 20:59:00,17.2,-2.5,30.18,West,270,3.1,4.9,41,0.00,,,0.00,WUHU21623XXSP,2013-01-27 01:59:00,
2013-01-26 21:00:00,17.2,-2.5,30.18,West,270,3.1,3.1,41,0.00,,,0.00,WUHU21623XXSP,2013-01-27 02:00:00,
2013-01-26 21:02:00,17.2,-2.5,30.18,NNW,337,0.9,3.1,41,0.00,,,0.00,WUHU21623XXSP,2013-01-27 02:02:00,
2013-01-26 21:04:00,17.1,-2.6,30.17,WNW,292,1.8,3.1,41,0.00,,,0.00,WUHU21623XXSP,2013-01-27 02:04:00,
2013-01-26 21:05:00,17.1,-2.6,30.17,West,270,11.4,11.4,41,0.00,,,0.00,WUHU21623XXSP,2013-01-27 02:05:00,
2013-01-26 21:07:00,17.2,-2.5,30.18,North,0,2.0,11.4,41,0.00,,,0.00,WUHU21623XXSP,2013-01-27 02:07:00,
2013-01-26 21:09:00,16.9,-2.8,30.18,NNW,337,5.6,11.4,41,0.00,,,0.00,WUHU21623XXSP,2013-01-27 02:09:00,
2013-01-26 21:10:00,16.9,-2.8,30.18,NNW,337,5.6,11.4,41,0.00,,,0.00,WUHU21623XXSP,2013-01-27 02:10:00,
2013-01-26 21:12:00,16.9,-2.8,30.18,West,270,4.9,11.4,41,0.00,,,0.00,WUHU21623XXSP,2013-01-27 02:12:00,
2013-01-26 21:14:00,16.9,-2.8,30.18,NW,315,1.8,11.4,41,0.00,,,0.00,WUHU21623XXSP,2013-01-27 02:14:00,
2013-01-26 21:15:00,16.9,-2.8,30.18,NW,315,1.8,5.6,41,0.00,,,0.00,WUHU21623XXSP,2013-01-27 02:15:00,
2013-01-26 21:17:00,16.9,-2.3,30.18,WNW,292,0.9,5.6,42,0.00,,,0.00,WUHU21623XXSP,2013-01-27 02:17:00,
2013-01-26 21:19:00,16.9,-2.3,30.18,WNW,292,0.9,5.4,42,0.00,,,0.00,WUHU21623XXSP,2013-01-27 02:19:00,
2013-01-26 21:20:00,16.9,-2.3,30.18,NNW,337,0.0,5.4,42,0.00,,,0.00,WUHU21623XXSP,2013-01-27 02:20:00,
2013-01-26 21:22:00,16.9,-2.3,30.18,NNE,22,0.0,5.4,42,0.00,,,0.00,WUHU21623XXSP,2013-01-27 02:22:00,
2013-01-26 21:24:00,16.9,-2.3,30.19,NW,315,2.0,5.4,42,0.00,,,0.00,WUHU21623XXSP,2013-01-27 02:24:00,
2013-01-26 21:25:00,16.9,-2.3,30.19,NW,315,2.0,5.4,42,0.00,,,0.00,WUHU21623XXSP,2013-01-27 02:25:00,
2013-01-26 21:27:00,16.9,-2.3,30.19,NNE,22,1.3,2.0,42,0.00,,,0.00,WUHU21623XXSP,2013-01-27 02:27:00,
2013-01-26 21:30:00,16.7,-2.5,30.19,NW,315,0.0,2.0,42,0.00,,,0.00,WUHU21623XXSP,2013-01-27 02:30:00,
2013-01-26 21:32:00,16.7,-2.5,30.19,West,270,2.7,4.7,42,0.00,,,0.00,WUHU21623XXSP,2013-01-27 02:32:00,
2013-01-26 21:35:00,16.7,-2.5,30.19,NW,315,1.8,4.7,42,0.00,,,0.00,WUHU21623XXSP,2013-01-27 02:35:00,
2013-01-26 21:36:00,16.7,-2.5,30.19,NW,315,1.8,4.7,42,0.00,,,0.00,WUHU21623XXSP,2013-01-27 02:36:00,
2013-01-26 21:37:00,16.5,-2.7,30.19,NW,315,2.9,4.7,42,0.00,,,0.00,WUHU21623XXSP,2013-01-27 02:37:00,
2013-01-26 21:40:00,16.5,-2.7,30.19,NW,315,5.1,5.1,42,0.00,,,0.00,WUHU21623XXSP,2013-01-27 02:40:00,
2013-01-26 21:41:00,16.5,-2.7,30.19,NW,315,5.1,5.1,42,0.00,,,0.00,WUHU21623XXSP,2013-01-27 02:41:00,
2013-01-26 21:43:00,16.5,-2.7,30.19,NNE,22,4.5,5.1,42,0.00,,,0.00,WUHU21623XXSP,2013-01-27 02:43:00,
2013-01-26 21:45:00,16.5,-2.2,30.19,North,0,0.0,5.1,43,0.00,,,0.00,WUHU21623XXSP,2013-01-27 02:45:00,
2013-01-26 21:46:00,16.5,-2.2,30.19,North,0,0.0,5.1,43,0.00,,,0.00,WUHU21623XXSP,2013-01-27 02:46:00,
2013-01-26 21:48:00,16.5,-2.2,30.20,NW,315,1.3,5.1,43,0.00,,,0.00,WUHU21623XXSP,2013-01-27 02:48:00,
2013-01-26 21:50:00,16.5,-2.2,30.19,NNW,337,5.1,5.1,43,0.00,,,0.00,WUHU21623XXSP,2013-01-27 02:50:00,
2013-01-26 21:51:00,16.5,-2.2,30.19,NNW,337,5.1,5.1,43,0.00,,,0.00,WUHU21623XXSP,2013-01-27 02:51:00,
2013-01-26 21:53:00,16.5,-2.2,30.20,East,90,1.8,5.1,43,0.00,,,0.00,WUHU21623XXSP,2013-01-27 02:53:00,
2013-01-26 21:55:00,16.5,-2.2,30.20,WNW,292,4.0,5.1,43,0.00,,,0.00,WUHU21623XXSP,2013-01-27 02:55:00,
2013-01-26 21:56:00,16.5,-2.2,30.20,WNW,292,4.0,5.1,43,0.00,,,0.00,WUHU21623XXSP,2013-01-27 02:56:00,
2013-01-26 21:58:00,16.5,-2.2,30.20,WSW,247,0.0,5.1,43,0.00,,,0.00,WUHU21623XXSP,2013-01-27 02:58:00,
2013-01-26 22:00:00,16.3,-1.9,30.20,West,270,2.9,4.0,44,0.00,,,0.00,WUHU21623XXSP,2013-01-27 03:00:00,
2013-01-26 22:01:00,16.3,-1.9,30.20,West,270,2.9,4.0,44,0.00,,,0.00,WUHU21623XXSP,2013-01-27 03:01:00,
2013-01-26 22:03:00,16.3,-1.9,30.20,WNW,292,4.0,4.0,44,0.00,,,0.00,WUHU21623XXSP,2013-01-27 03:03:00,
2013-01-26 22:06:00,16.3,-1.9,30.20,West,270,1.3,4.0,44,0.00,,,0.00,WUHU21623XXSP,2013-01-27 03:06:00,
2013-01-26 22:09:00,16.3,-1.9,30.20,WNW,292,2.2,4.0,44,0.00,,,0.00,WUHU21623XXSP,2013-01-27 03:09:00,
2013-01-26 22:11:00,16.3,-1.9,30.20,SW,225,3.1,4.9,44,0.00,,,0.00,WUHU21623XXSP,2013-01-27 03:11:00,
2013-01-26 22:12:00,16.3,-1.9,30.20,SW,225,3.1,4.9,44,0.00,,,0.00,WUHU21623XXSP,2013-01-27 03:12:00,
2013-01-26 22:14:00,16.2,-2.1,30.20,NNW,337,0.0,4.9,44,0.00,,,0.00,WUHU21623XXSP,2013-01-27 03:14:00,
2013-01-26 22:16:00,16.3,-1.9,30.21,West,270,4.0,4.9,44,0.00,,,0.00,WUHU21623XXSP,2013-01-27 03:16:00,
2013-01-26 22:17:00,16.3,-1.9,30.21,West,270,4.0,4.9,44,0.00,,,0.00,WUHU21623XXSP,2013-01-27 03:17:00,
2013-01-26 22:19:00,16.2,-2.1,30.21,WNW,292,0.0,4.0,44,0.00,,,0.00,WUHU21623XXSP,2013-01-27 03:19:00,
2013-01-26 22:21:00,16.2,-2.1,30.20,NNW,337,5.6,5.6,44,0.00,,,0.00,WUHU21623XXSP,2013-01-27 03:21:00,
2013-01-26 22:22:00,16.2,-2.1,30.20,WNW,292,1.6,5.6,44,0.00,,,0.00,WUHU21623XXSP,2013-01-27 03:22:00,
2013-01-26 22:24:00,16.2,-2.1,30.21,WNW,292,2.5,5.6,44,0.00,,,0.00,WUHU21623XXSP,2013-01-27 03:24:00,
2013-01-26 22:27:00,16.0,-2.3,30.21,NW,315,11.0,11.0,44,0.00,,,0.00,WUHU21623XXSP,2013-01-27 03:27:00,
2013-01-26 22:29:00,16.0,-1.8,30.21,West,270,4.0,11.0,45,0.00,,,0.00,WUHU21623XXSP,2013-01-27 03:29:00,
2013-01-26 22:32:00,16.0,-1.8,30.21,WNW,292,3.1,11.0,45,0.00,,,0.00,WUHU21623XXSP,2013-01-27 03:32:00,
2013-01-26 22:33:00,16.0,-1.8,30.21,West,270,7.4,11.0,45,0.00,,,0.00,WUHU21623XXSP,2013-01-27 03:33:00,
2013-01-26 22:35:00,16.0,-1.8,30.21,WNW,292,3.1,11.0,45,0.00,,,0.00,WUHU21623XXSP,2013-01-27 03:35:00,
2013-01-26 22:37:00,16.0,-1.8,30.21,WNW,292,2.5,7.4,45,0.00,,,0.00,WUHU21623XXSP,2013-01-27 03:37:00,
2013-01-26 22:38:00,16.0,-1.8,30.21,WNW,292,2.5,7.4,45,0.00,,,0.00,WUHU21623XXSP,2013-01-27 03:38:00,
2013-01-26 22:40:00,16.0,-1.8,30.21,West,270,3.6,7.4,45,0.00,,,0.00,WUHU21623XXSP,2013-01-27 03:40:00,
2013-01-26 22:43:00,16.0,-1.8,30.21,West,270,4.0,4.0,45,0.00,,,0.00,WUHU21623XXSP,2013-01-27 03:43:00,
2013-01-26 22:45:00,16.0,-1.8,30.21,NW,315,3.4,4.0,45,0.00,,,0.00,WUHU21623XXSP,2013-01-27 03:45:00,
2013-01-26 22:48:00,16.0,-1.8,30.21,WNW,292,6.5,6.5,45,0.00,,,0.00,WUHU21623XXSP,2013-01-27 03:48:00,
2013-01-26 22:50:00,16.0,-1.3,30.21,North,0,2.2,6.5,46,0.00,,,0.00,WUHU21623XXSP,2013-01-27 03:50:00,
2013-01-26 22:53:00,16.0,-1.3,30.21,North,0,3.1,6.5,46,0.00,,,0.00,WUHU21623XXSP,2013-01-27 03:53:00,
2013-01-26 22:55:00,16.2,-1.1,30.22,NW,315,2.2,6.5,46,0.00,,,0.00,WUHU21623XXSP,2013-01-27 03:55:00,
2013-01-26 22:58:00,16.2,-1.1,30.21,NNE,22,1.8,3.1,46,0.00,,,0.00,WUHU21623XXSP,2013-01-27 03:58:00,
2013-01-26 23:00:00,16.0,-1.3,30.22,West,270,2.5,3.1,46,0.00,,,0.00,WUHU21623XXSP,2013-01-27 04:00:00,
2013-01-26 23:03:00,16.0,-1.3,30.21,WNW,292,1.1,2.5,46,0.00,,,0.00,WUHU21623XXSP,2013-01-27 04:03:00,
2013-01-26 23:05:00,16.2,-1.1,30.22,NNW,337,3.4,3.4,46,0.00,,,0.00,WUHU21623XXSP,2013-01-27 04:05:00,
2013-01-26 23:08:00,16.2,-1.1,30.22,WNW,292,7.4,7.4,46,0.00,,,0.00,WUHU21623XXSP,2013-01-27 04:08:00,
2013-01-26 23:10:00,16.2,-1.1,30.22,North,0,3.6,7.4,46,0.00,,,0.00,WUHU21623XXSP,2013-01-27 04:10:00,
2013-01-26 23:13:00,16.0,-1.3,30.22,NW,315,1.3,7.4,46,0.00,,,0.00,WUHU21623XXSP,2013-01-27 04:13:00,
2013-01-26 23:15:00,16.0,-0.8,30.22,North,0,2.0,7.4,47,0.00,,,0.00,WUHU21623XXSP,2013-01-27 04:15:00,
2013-01-26 23:18:00,16.0,-0.8,30.22,West,270,3.1,3.6,47,0.00,,,0.00,WUHU21623XXSP,2013-01-27 04:18:00,
2013-01-26 23:20:00,16.0,-0.8,30.22,West,270,3.1,3.1,47,0.00,,,0.00,WUHU21623XXSP,2013-01-27 04:20:00,
2013-01-26 23:23:00,16.0,-0.8,30.22,North,0,5.1,5.1,47,0.00,,,0.00,WUHU21623XXSP,2013-01-27 04:23:00,
2013-01-26 23:26:00,16.0,-0.8,30.22,NW,315,3.4,5.1,47,0.00,,,0.00,WUHU21623XXSP,2013-01-27 04:26:00,
2013-01-26 23:28:00,16.0,-0.8,30.23,NNE,22,4.9,5.1,47,0.00,,,0.00,WUHU21623XXSP,2013-01-27 04:28:00,
2013-01-26 23:29:00,16.0,-0.8,30.23,NNE,22,4.9,5.1,47,0.00,,,0.00,WUHU21623XXSP,2013-01-27 04:29:00,
2013-01-26 23:31:00,16.0,-0.8,30.22,WNW,292,3.6,5.1,47,0.00,,,0.00,WUHU21623XXSP,2013-01-27 04:31:00,
2013-01-26 23:33:00,16.0,-0.8,30.23,North,0,1.1,4.9,47,0.00,,,0.00,WUHU21623XXSP,2013-01-27 04:33:00,
2013-01-26 23:34:00,16.0,-0.8,30.23,North,0,1.1,4.9,47,0.00,,,0.00,WUHU21623XXSP,2013-01-27 04:34:00,
2013-01-26 23:37:00,16.0,-0.8,30.22,WNW,292,5.6,5.6,47,0.00,,,0.00,WUHU21623XXSP,2013-01-27 04:37:00,
2013-01-26 23:38:00,16.0,-0.8,30.22,WNW,292,5.6,5.6,47,0.00,,,0.00,WUHU21623XXSP,2013-01-27 04:38:00,
2013-01-26 23:39:00,15.8,-1.0,30.22,NW,315,6.7,6.7,47,0.00,,,0.00,WUHU21623XXSP,2013-01-27 04:39:00,
2013-01-26 23:42:00,16.0,-0.8,30.22,WNW,292,4.0,6.7,47,0.00,,,0.00,WUHU21623XXSP,2013-01-27 04:42:00,
2013-01-26 23:44:00,15.8,-1.0,30.22,NW,315,0.0,6.7,47,0.00,,,0.00,WUHU21623XXSP,2013-01-27 04:44:00,
2013-01-26 23:47:00,15.6,-0.7,30.22,NNE,22,1.3,6.7,48,0.00,,,0.00,WUHU21623XXSP,2013-01-27 04:47:00,
2013-01-26 23:49:00,15.6,-0.7,30.22,NNE,22,1.3,4.0,48,0.00,,,0.00,WUHU21623XXSP,2013-01-27 04:49:00,
2013-01-26 23:52:00,15.6,-0.7,30.23,NNE,22,1.1,3.4,48,0.00,,,0.00,WUHU21623XXSP,2013-01-27 04:52:00,
2013-01-26 23:54:00,15.6,-0.7,30.23,West,270,1.6,3.4,48,0.00,,,0.00,WUHU21623XXSP,2013-01-27 04:54:00,
2013-01-26 23:55:00,15.6,-0.7,30.23,West,270,1.6,3.4,48,0.00,,,0.00,WUHU21623XXSP,2013-01-27 04:55:00,
2013-01-26 23:57:00,15.6,-0.7,30.23,West,270,1.1,3.4,48,0.00,,,0.00,WUHU21623XXSP,2013-01-27 04:57:00,
2013-01-26 23:59:00,15.6,-0.7,30.23,West,270,1.1,1.6,48,0.00,,,0.00,WUHU21623XXSP,2013-01-27 04:59:00,